Wetterdaten: Montag, 27.05.2019
Datum Zeit Temp. Aussen Temp. o. S. +5cm Feuchte Auss Luftdruck Regen Sonnenschein Regendauer Solar Windben Empfang
27.05.2019 00:00 16,4 C 15,0 C 15,0 C 79 % 1010,5 hPa 0,0 l/m 0 min 0 min 0 W/m 9,7 km/h (2 Bft) 97,87 %
27.05.2019 00:02 16,4 C 15,0 C 15,0 C 79 % 1010,5 hPa 0,0 l/m 0 min 0 min 0 W/m 6,4 km/h (2 Bft) 97,73 %
27.05.2019 00:04 16,4 C 15,0 C 15,0 C 79 % 1010,4 hPa 0,0 l/m 0 min 0 min 0 W/m 16,1 km/h (3 Bft) 100,00 %
27.05.2019 00:07 16,3 C 15,0 C 15,0 C 80 % 1010,5 hPa 0,0 l/m 0 min 0 min 0 W/m 19,3 km/h (3 Bft) 100,00 %
27.05.2019 00:08 16,3 C 15,0 C 15,0 C 80 % 1010,5 hPa 0,0 l/m 0 min 0 min 0 W/m 9,7 km/h (2 Bft) 100,00 %
27.05.2019 00:10 16,3 C 15,0 C 15,0 C 80 % 1010,5 hPa 0,0 l/m 0 min 0 min 0 W/m 12,9 km/h (3 Bft) 100,00 %
27.05.2019 00:12 16,3 C 15,0 C 15,0 C 80 % 1010,4 hPa 0,0 l/m 0 min 0 min 0 W/m 16,1 km/h (3 Bft) 100,00 %
27.05.2019 00:14 16,2 C 15,0 C 15,0 C 80 % 1010,5 hPa 0,0 l/m 0 min 0 min 0 W/m 9,7 km/h (2 Bft) 100,00 %
27.05.2019 00:16 16,2 C 15,0 C 15,0 C 80 % 1010,4 hPa 0,0 l/m 0 min 0 min 0 W/m 12,9 km/h (3 Bft) 97,87 %
27.05.2019 00:18 16,2 C 15,0 C 15,0 C 81 % 1010,5 hPa 0,0 l/m 0 min 0 min 0 W/m 29,0 km/h (5 Bft) 100,00 %
27.05.2019 00:20 16,2 C 15,0 C 15,0 C 81 % 1010,5 hPa 0,0 l/m 0 min 0 min 0 W/m 19,3 km/h (3 Bft) 100,00 %
27.05.2019 00:22 16,2 C 15,0 C 15,0 C 81 % 1010,4 hPa 0,0 l/m 0 min 0 min 0 W/m 12,9 km/h (3 Bft) 100,00 %
27.05.2019 00:24 16,1 C 15,0 C 15,0 C 81 % 1010,4 hPa 0,0 l/m 0 min 0 min 0 W/m 12,9 km/h (3 Bft) 100,00 %
27.05.2019 00:26 16,1 C 15,0 C 15,0 C 81 % 1010,4 hPa 0,0 l/m 0 min 0 min 0 W/m 19,3 km/h (3 Bft) 100,00 %
27.05.2019 00:28 16,1 C 15,0 C 15,0 C 81 % 1010,4 hPa 0,0 l/m 0 min 0 min 0 W/m 12,9 km/h (3 Bft) 100,00 %
27.05.2019 00:30 16,1 C 15,0 C 15,0 C 81 % 1010,3 hPa 0,0 l/m 0 min 0 min 0 W/m 22,5 km/h (4 Bft) 95,74 %
27.05.2019 00:32 16,1 C 15,0 C 15,0 C 81 % 1010,4 hPa 0,0 l/m 0 min 0 min 0 W/m 12,9 km/h (3 Bft) 100,00 %
27.05.2019 00:34 16,0 C 15,0 C 15,0 C 81 % 1010,3 hPa 0,0 l/m 0 min 0 min 0 W/m 9,7 km/h (2 Bft) 100,00 %
27.05.2019 00:36 16,0 C 15,0 C 15,0 C 81 % 1010,3 hPa 0,0 l/m 0 min 0 min 0 W/m 19,3 km/h (3 Bft) 100,00 %
27.05.2019 00:38 16,0 C 15,0 C 15,0 C 82 % 1010,2 hPa 0,0 l/m 0 min 0 min 0 W/m 16,1 km/h (3 Bft) 100,00 %
27.05.2019 00:40 16,0 C 15,0 C 15,0 C 82 % 1010,2 hPa 0,0 l/m 0 min 0 min 0 W/m 16,1 km/h (3 Bft) 100,00 %
27.05.2019 00:42 15,9 C 15,0 C 15,0 C 82 % 1010,2 hPa 0,0 l/m 0 min 0 min 0 W/m 16,1 km/h (3 Bft) 100,00 %
27.05.2019 00:44 15,9 C 15,0 C 15,0 C 82 % 1010,2 hPa 0,0 l/m 0 min 0 min 0 W/m 9,7 km/h (2 Bft) 97,87 %
27.05.2019 00:46 15,9 C 15,0 C 15,0 C 82 % 1010,2 hPa 0,0 l/m 0 min 0 min 0 W/m 9,7 km/h (2 Bft) 97,87 %
27.05.2019 00:48 15,9 C 15,0 C 15,0 C 82 % 1010,2 hPa 0,0 l/m 0 min 0 min 0 W/m 19,3 km/h (3 Bft) 100,00 %
27.05.2019 00:50 15,9 C 15,0 C 15,0 C 82 % 1010,3 hPa 0,0 l/m 0 min 0 min 0 W/m 12,9 km/h (3 Bft) 97,83 %
27.05.2019 00:52 15,9 C 15,0 C 15,0 C 82 % 1010,2 hPa 0,0 l/m 0 min 0 min 0 W/m 16,1 km/h (3 Bft) 95,74 %
27.05.2019 00:54 15,9 C 15,0 C 15,0 C 82 % 1010,2 hPa 0,0 l/m 0 min 0 min 0 W/m 22,5 km/h (4 Bft) 97,87 %
27.05.2019 00:56 15,9 C 15,0 C 15,0 C 82 % 1010,2 hPa 0,0 l/m 0 min 0 min 0 W/m 9,7 km/h (2 Bft) 95,74 %
27.05.2019 00:58 15,9 C 15,0 C 15,0 C 82 % 1010,1 hPa 0,0 l/m 0 min 0 min 0 W/m 16,1 km/h (3 Bft) 97,87 %
27.05.2019 01:00 15,9 C 15,0 C 15,0 C 82 % 1010,1 hPa 0,0 l/m 0 min 0 min 0 W/m 6,4 km/h (2 Bft) 97,87 %
27.05.2019 01:02 15,9 C 15,0 C 15,0 C 82 % 1010,1 hPa 0,0 l/m 0 min 0 min 0 W/m 6,4 km/h (2 Bft) 95,65 %
27.05.2019 01:04 15,9 C 15,0 C 15,0 C 82 % 1010,1 hPa 0,0 l/m 0 min 0 min 0 W/m 9,7 km/h (2 Bft) 95,74 %
27.05.2019 01:06 15,9 C 15,0 C 15,0 C 82 % 1010,0 hPa 0,0 l/m 0 min 0 min 0 W/m 16,1 km/h (3 Bft) 93,62 %
27.05.2019 01:08 15,9 C 15,0 C 15,0 C 82 % 1010,0 hPa 0,0 l/m 0 min 0 min 0 W/m 12,9 km/h (3 Bft) 95,74 %
27.05.2019 01:10 15,9 C 15,0 C 15,0 C 82 % 1010,0 hPa 0,0 l/m 0 min 0 min 0 W/m 22,5 km/h (4 Bft) 95,74 %
27.05.2019 01:12 15,9 C 15,0 C 15,0 C 83 % 1009,9 hPa 0,0 l/m 0 min 0 min 0 W/m 6,4 km/h (2 Bft) 93,48 %
27.05.2019 01:14 15,9 C 15,0 C 15,0 C 83 % 1009,9 hPa 0,0 l/m 0 min 0 min 0 W/m 9,7 km/h (2 Bft) 95,74 %
27.05.2019 01:16 15,8 C 15,0 C 15,0 C 83 % 1009,9 hPa 0,0 l/m 0 min 0 min 0 W/m 9,7 km/h (2 Bft) 95,74 %
27.05.2019 01:18 15,8 C 15,0 C 15,0 C 83 % 1009,9 hPa 0,0 l/m 0 min 0 min 0 W/m 12,9 km/h (3 Bft) 95,74 %
27.05.2019 01:20 15,8 C 15,0 C 15,0 C 83 % 1009,9 hPa 0,0 l/m 0 min 0 min 0 W/m 6,4 km/h (2 Bft) 95,74 %
27.05.2019 01:22 15,8 C 15,0 C 15,0 C 83 % 1009,9 hPa 0,0 l/m 0 min 0 min 0 W/m 9,7 km/h (2 Bft) 95,74 %
27.05.2019 01:24 15,8 C 15,0 C 15,0 C 83 % 1009,9 hPa 0,0 l/m 0 min 0 min 0 W/m 19,3 km/h (3 Bft) 95,74 %
27.05.2019 01:26 15,8 C 14,4 C 14,4 C 83 % 1009,9 hPa 0,0 l/m 0 min 0 min 0 W/m 9,7 km/h (2 Bft) 95,65 %
27.05.2019 01:28 15,8 C 14,4 C 13,9 C 83 % 1009,9 hPa 0,0 l/m 0 min 0 min 0 W/m 6,4 km/h (2 Bft) 93,62 %
27.05.2019 01:30 15,8 C 14,4 C 14,4 C 83 % 1009,9 hPa 0,0 l/m 0 min 0 min 0 W/m 12,9 km/h (3 Bft) 91,49 %
27.05.2019 01:32 15,8 C 14,4 C 14,4 C 83 % 1009,9 hPa 0,0 l/m 0 min 0 min 0 W/m 16,1 km/h (3 Bft) 95,74 %
27.05.2019 01:34 15,8 C 14,4 C 14,4 C 84 % 1009,8 hPa 0,0 l/m 0 min 0 min 0 W/m 12,9 km/h (3 Bft) 95,74 %
27.05.2019 01:36 15,8 C 14,4 C 14,4 C 84 % 1009,8 hPa 0,0 l/m 0 min 0 min 0 W/m 12,9 km/h (3 Bft) 91,30 %
27.05.2019 01:38 15,8 C 14,4 C 14,4 C 84 % 1009,8 hPa 0,0 l/m 0 min 0 min 0 W/m 25,7 km/h (4 Bft) 95,74 %
27.05.2019 01:40 15,8 C 14,4 C 14,4 C 84 % 1009,7 hPa 0,0 l/m 0 min 0 min 0 W/m 6,4 km/h (2 Bft) 95,74 %
27.05.2019 01:42 15,7 C 14,4 C 14,4 C 84 % 1009,8 hPa 0,0 l/m 0 min 0 min 0 W/m 16,1 km/h (3 Bft) 95,74 %
27.05.2019 01:44 15,7 C 14,4 C 14,4 C 85 % 1009,7 hPa 0,0 l/m 0 min 0 min 0 W/m 16,1 km/h (3 Bft) 95,74 %
27.05.2019 01:46 15,7 C 14,4 C 14,4 C 85 % 1009,7 hPa 0,0 l/m 0 min 0 min 0 W/m 16,1 km/h (3 Bft) 97,87 %
27.05.2019 01:48 15,7 C 14,4 C 14,4 C 85 % 1009,7 hPa 0,0 l/m 0 min 0 min 0 W/m 19,3 km/h (3 Bft) 95,65 %
27.05.2019 01:50 15,7 C 14,4 C 13,9 C 85 % 1009,7 hPa 0,0 l/m 0 min 0 min 0 W/m 6,4 km/h (2 Bft) 97,87 %
27.05.2019 01:52 15,6 C 14,4 C 13,9 C 85 % 1009,7 hPa 0,0 l/m 0 min 0 min 0 W/m 6,4 km/h (2 Bft) 95,74 %
27.05.2019 01:54 15,6 C 14,4 C 13,9 C 85 % 1009,8 hPa 0,0 l/m 0 min 0 min 0 W/m 6,4 km/h (2 Bft) 97,87 %
27.05.2019 01:56 15,6 C 14,4 C 13,9 C 85 % 1009,7 hPa 0,0 l/m 0 min 0 min 0 W/m 12,9 km/h (3 Bft) 100,00 %
27.05.2019 01:58 15,6 C 14,4 C 13,9 C 86 % 1009,7 hPa 0,0 l/m 0 min 0 min 0 W/m 19,3 km/h (3 Bft) 100,00 %
27.05.2019 02:00 15,6 C 14,4 C 13,9 C 86 % 1009,6 hPa 0,0 l/m 0 min 0 min 0 W/m 16,1 km/h (3 Bft) 100,00 %
27.05.2019 02:02 15,5 C 14,4 C 13,9 C 86 % 1009,6 hPa 0,0 l/m 0 min 0 min 0 W/m 16,1 km/h (3 Bft) 97,87 %
27.05.2019 02:04 15,5 C 14,4 C 13,9 C 86 % 1009,7 hPa 0,0 l/m 0 min 0 min 0 W/m 6,4 km/h (2 Bft) 100,00 %
27.05.2019 02:06 15,5 C 13,9 C 13,9 C 86 % 1009,7 hPa 0,0 l/m 0 min 0 min 0 W/m 9,7 km/h (2 Bft) 97,87 %
27.05.2019 02:08 15,4 C 13,9 C 13,3 C 87 % 1009,7 hPa 0,0 l/m 0 min 0 min 0 W/m 9,7 km/h (2 Bft) 97,87 %
27.05.2019 02:10 15,4 C 13,9 C 13,3 C 87 % 1009,7 hPa 0,0 l/m 0 min 2 min 0 W/m 9,7 km/h (2 Bft) 100,00 %
27.05.2019 02:12 15,4 C 13,3 C 13,3 C 87 % 1009,6 hPa 0,0 l/m 0 min 0 min 0 W/m 6,4 km/h (2 Bft) 100,00 %
27.05.2019 02:14 15,4 C 13,3 C 13,3 C 87 % 1009,5 hPa 0,0 l/m 0 min 2 min 0 W/m 6,4 km/h (2 Bft) 97,87 %
27.05.2019 02:16 15,4 C 13,3 C 12,8 C 88 % 1009,6 hPa 0,0 l/m 0 min 0 min 0 W/m 6,4 km/h (2 Bft) 91,49 %
27.05.2019 02:18 15,4 C 13,3 C 13,3 C 88 % 1009,6 hPa 0,0 l/m 0 min 0 min 0 W/m 12,9 km/h (3 Bft) 97,87 %
27.05.2019 02:20 15,3 C 13,3 C 12,8 C 88 % 1009,7 hPa 0,0 l/m 0 min 0 min 0 W/m 9,7 km/h (2 Bft) 95,74 %
27.05.2019 02:22 15,3 C 13,3 C 12,8 C 89 % 1009,6 hPa 0,0 l/m 0 min 2 min 0 W/m 12,9 km/h (3 Bft) 97,83 %
27.05.2019 02:24 15,2 C 13,3 C 12,8 C 89 % 1009,7 hPa 0,0 l/m 0 min 0 min 0 W/m 9,7 km/h (2 Bft) 97,87 %
27.05.2019 02:26 15,2 C 13,3 C 12,8 C 89 % 1009,7 hPa 0,0 l/m 0 min 0 min 0 W/m 6,4 km/h (2 Bft) 97,87 %
27.05.2019 02:28 15,2 C 13,3 C 12,8 C 89 % 1009,7 hPa 0,0 l/m 0 min 0 min 0 W/m 9,7 km/h (2 Bft) 93,62 %
27.05.2019 02:30 15,1 C 13,3 C 12,8 C 89 % 1009,6 hPa 0,0 l/m 0 min 0 min 0 W/m 6,4 km/h (2 Bft) 97,87 %
27.05.2019 02:32 15,1 C 13,3 C 12,8 C 90 % 1009,7 hPa 0,0 l/m 0 min 2 min 0 W/m 6,4 km/h (2 Bft) 95,74 %
27.05.2019 02:34 15,1 C 12,8 C 12,8 C 90 % 1009,6 hPa 0,0 l/m 0 min 2 min 0 W/m 9,7 km/h (2 Bft) 97,83 %
27.05.2019 02:36 15,0 C 12,8 C 12,8 C 90 % 1009,6 hPa 0,2 l/m 0 min 2 min 0 W/m 9,7 km/h (2 Bft) 97,87 %
27.05.2019 02:38 15,0 C 12,8 C 12,8 C 90 % 1009,6 hPa 0,0 l/m 0 min 2 min 0 W/m 9,7 km/h (2 Bft) 95,74 %
27.05.2019 02:40 14,9 C 12,8 C 12,8 C 91 % 1009,6 hPa 0,0 l/m 0 min 2 min 0 W/m 6,4 km/h (2 Bft) 97,87 %
27.05.2019 02:42 14,9 C 12,8 C 12,8 C 91 % 1009,6 hPa 0,0 l/m 0 min 2 min 0 W/m 3,2 km/h (1 Bft) 97,87 %
27.05.2019 02:44 14,9 C 12,8 C 12,8 C 91 % 1009,6 hPa 0,0 l/m 0 min 0 min 0 W/m 6,4 km/h (2 Bft) 97,87 %
27.05.2019 02:46 14,9 C 12,8 C 12,8 C 91 % 1009,6 hPa 0,0 l/m 0 min 0 min 0 W/m 9,7 km/h (2 Bft) 95,65 %
27.05.2019 02:48 14,8 C 12,8 C 12,8 C 92 % 1009,6 hPa 0,0 l/m 0 min 0 min 0 W/m 9,7 km/h (2 Bft) 97,87 %
27.05.2019 02:50 14,8 C 12,8 C 12,8 C 92 % 1009,4 hPa 0,0 l/m 0 min 0 min 0 W/m 9,7 km/h (2 Bft) 95,92 %
27.05.2019 02:52 14,8 C 12,8 C 12,8 C 92 % 1009,4 hPa 0,0 l/m 0 min 0 min 0 W/m 6,4 km/h (2 Bft) 100,00 %
27.05.2019 02:54 14,7 C 12,8 C 12,8 C 92 % 1009,5 hPa 0,0 l/m 0 min 0 min 0 W/m 6,4 km/h (2 Bft) 97,83 %
27.05.2019 02:56 14,7 C 12,8 C 12,8 C 92 % 1009,4 hPa 0,0 l/m 0 min 0 min 0 W/m 9,7 km/h (2 Bft) 97,87 %
27.05.2019 02:58 14,7 C 12,8 C 12,8 C 92 % 1009,4 hPa 0,0 l/m 0 min 0 min 0 W/m 6,4 km/h (2 Bft) 96,23 %
27.05.2019 03:00 14,7 C 12,8 C 12,8 C 92 % 1009,4 hPa 0,0 l/m 0 min 0 min 0 W/m 9,7 km/h (2 Bft) 98,00 %
27.05.2019 03:02 14,6 C 12,8 C 12,8 C 93 % 1009,4 hPa 0,0 l/m 0 min 0 min 0 W/m 6,4 km/h (2 Bft) 98,00 %
27.05.2019 03:04 14,6 C 12,8 C 12,8 C 93 % 1009,3 hPa 0,0 l/m 0 min 0 min 0 W/m 6,4 km/h (2 Bft) 97,14 %
27.05.2019 03:06 14,6 C 12,8 C 12,8 C 93 % 1009,2 hPa 0,0 l/m 0 min 0 min 0 W/m 9,7 km/h (2 Bft) 98,11 %
27.05.2019 03:08 14,6 C 12,8 C 12,8 C 93 % 1009,3 hPa 0,0 l/m 0 min 0 min 0 W/m 9,7 km/h (2 Bft) 98,00 %
27.05.2019 03:10 14,5 C 12,8 C 12,8 C 93 % 1009,3 hPa 0,0 l/m 0 min 0 min 0 W/m 3,2 km/h (1 Bft) 97,83 %
27.05.2019 03:12 14,5 C 12,8 C 12,8 C 93 % 1009,3 hPa 0,0 l/m 0 min 0 min 0 W/m 12,9 km/h (3 Bft) 98,00 %
27.05.2019 03:14 14,5 C 12,8 C 12,8 C 93 % 1009,3 hPa 0,0 l/m 0 min 0 min 0 W/m 6,4 km/h (2 Bft) 94,29 %
27.05.2019 03:16 14,4 C 12,8 C 12,8 C 93 % 1009,3 hPa 0,0 l/m 0 min 0 min 0 W/m 12,9 km/h (3 Bft) 100,00 %
27.05.2019 03:18 14,4 C 12,8 C 12,8 C 94 % 1009,3 hPa 0,0 l/m 0 min 0 min 0 W/m 9,7 km/h (2 Bft) 100,00 %
27.05.2019 03:20 14,4 C 12,8 C 12,8 C 94 % 1009,3 hPa 0,0 l/m 0 min 2 min 0 W/m 9,7 km/h (2 Bft) 97,96 %
27.05.2019 03:22 14,4 C 12,8 C 12,8 C 94 % 1009,2 hPa 0,2 l/m 0 min 2 min 0 W/m 9,7 km/h (2 Bft) 100,00 %
27.05.2019 03:24 14,4 C 12,8 C 12,8 C 94 % 1009,1 hPa 0,0 l/m 0 min 2 min 0 W/m 9,7 km/h (2 Bft) 96,23 %
27.05.2019 03:26 14,4 C 12,8 C 12,8 C 94 % 1009,2 hPa 0,0 l/m 0 min 2 min 0 W/m 3,2 km/h (1 Bft) 100,00 %
27.05.2019 03:28 14,4 C 12,8 C 12,8 C 94 % 1009,2 hPa 0,0 l/m 0 min 2 min 0 W/m 9,7 km/h (2 Bft) 100,00 %
27.05.2019 03:30 14,4 C 12,8 C 12,8 C 94 % 1009,2 hPa 0,0 l/m 0 min 0 min 0 W/m 6,4 km/h (2 Bft) 100,00 %
27.05.2019 03:32 14,4 C 12,8 C 12,8 C 94 % 1009,2 hPa 0,0 l/m 0 min 0 min 0 W/m 6,4 km/h (2 Bft) 100,00 %
27.05.2019 03:34 14,3 C 12,8 C 12,8 C 94 % 1009,3 hPa 0,0 l/m 0 min 2 min 0 W/m 12,9 km/h (3 Bft) 95,92 %
27.05.2019 03:36 14,3 C 12,8 C 12,8 C 94 % 1009,2 hPa 0,0 l/m 0 min 2 min 0 W/m 9,7 km/h (2 Bft) 100,00 %
27.05.2019 03:38 14,3 C 12,8 C 12,8 C 94 % 1009,2 hPa 0,0 l/m 0 min 2 min 0 W/m 6,4 km/h (2 Bft) 100,00 %
27.05.2019 03:40 14,3 C 12,8 C 12,8 C 95 % 1009,1 hPa 0,2 l/m 0 min 2 min 0 W/m 6,4 km/h (2 Bft) 100,00 %
27.05.2019 03:42 14,3 C 12,8 C 12,8 C 95 % 1009,2 hPa 0,0 l/m 0 min 2 min 0 W/m 9,7 km/h (2 Bft) 95,83 %
27.05.2019 03:44 14,2 C 12,8 C 12,8 C 95 % 1009,2 hPa 0,0 l/m 0 min 2 min 0 W/m 12,9 km/h (3 Bft) 97,14 %
27.05.2019 03:46 14,3 C 12,8 C 12,8 C 95 % 1009,2 hPa 0,0 l/m 0 min 0 min 0 W/m 6,4 km/h (2 Bft) 95,74 %
27.05.2019 03:48 14,3 C 12,8 C 12,8 C 95 % 1009,2 hPa 0,0 l/m 0 min 0 min 0 W/m 6,4 km/h (2 Bft) 95,74 %
27.05.2019 03:50 14,2 C 12,8 C 12,8 C 95 % 1009,2 hPa 0,0 l/m 0 min 0 min 0 W/m 6,4 km/h (2 Bft) 95,74 %
27.05.2019 03:52 14,2 C 12,8 C 12,8 C 95 % 1009,2 hPa 0,0 l/m 0 min 0 min 0 W/m 6,4 km/h (2 Bft) 94,55 %
27.05.2019 03:54 14,2 C 12,8 C 12,8 C 95 % 1009,2 hPa 0,0 l/m 0 min 0 min 0 W/m 12,9 km/h (3 Bft) 96,00 %
27.05.2019 03:56 14,2 C 12,8 C 12,8 C 95 % 1009,1 hPa 0,0 l/m 0 min 0 min 0 W/m 6,4 km/h (2 Bft) 97,14 %
27.05.2019 03:58 14,2 C 12,8 C 12,8 C 95 % 1009,1 hPa 0,0 l/m 0 min 0 min 0 W/m 12,9 km/h (3 Bft) 93,62 %
27.05.2019 04:00 14,2 C 12,8 C 12,8 C 95 % 1009,1 hPa 0,0 l/m 0 min 0 min 0 W/m 3,2 km/h (1 Bft) 94,55 %
27.05.2019 04:02 14,2 C 12,8 C 12,8 C 95 % 1009,1 hPa 0,0 l/m 0 min 0 min 0 W/m 6,4 km/h (2 Bft) 100,00 %
27.05.2019 04:04 14,2 C 12,8 C 12,8 C 95 % 1009,1 hPa 0,0 l/m 0 min 0 min 0 W/m 9,7 km/h (2 Bft) 95,74 %
27.05.2019 04:06 14,2 C 12,8 C 12,8 C 95 % 1009,1 hPa 0,0 l/m 0 min 0 min 0 W/m 9,7 km/h (2 Bft) 93,62 %
27.05.2019 04:08 14,2 C 12,8 C 12,8 C 96 % 1009,2 hPa 0,0 l/m 0 min 0 min 0 W/m 6,4 km/h (2 Bft) 95,74 %
27.05.2019 04:10 14,2 C 12,8 C 12,8 C 96 % 1009,2 hPa 0,0 l/m 0 min 0 min 0 W/m 6,4 km/h (2 Bft) 95,65 %
27.05.2019 04:12 14,2 C 12,8 C 12,8 C 96 % 1009,1 hPa 0,0 l/m 0 min 0 min 0 W/m 3,2 km/h (1 Bft) 95,74 %
27.05.2019 04:14 14,2 C 12,8 C 12,8 C 96 % 1009,1 hPa 0,0 l/m 0 min 0 min 0 W/m 12,9 km/h (3 Bft) 95,74 %
27.05.2019 04:16 14,2 C 12,8 C 12,8 C 96 % 1009,1 hPa 0,0 l/m 0 min 2 min 0 W/m 6,4 km/h (2 Bft) 97,87 %
27.05.2019 04:18 14,2 C 12,8 C 12,8 C 96 % 1009,1 hPa 0,0 l/m 0 min 0 min 0 W/m 6,4 km/h (2 Bft) 95,74 %
27.05.2019 04:20 14,2 C 12,8 C 12,8 C 96 % 1009,0 hPa 0,0 l/m 0 min 2 min 0 W/m 3,2 km/h (1 Bft) 97,87 %
27.05.2019 04:22 14,2 C 12,8 C 12,8 C 96 % 1009,0 hPa 0,0 l/m 0 min 0 min 0 W/m 12,9 km/h (3 Bft) 95,65 %
27.05.2019 04:24 14,2 C 12,8 C 12,8 C 96 % 1009,0 hPa 0,0 l/m 0 min 2 min 0 W/m 9,7 km/h (2 Bft) 93,62 %
27.05.2019 04:26 14,2 C 12,8 C 12,8 C 96 % 1009,0 hPa 0,0 l/m 0 min 2 min 0 W/m 6,4 km/h (2 Bft) 97,87 %
27.05.2019 04:28 14,2 C 12,8 C 12,8 C 96 % 1009,0 hPa 0,2 l/m 0 min 2 min 0 W/m 9,7 km/h (2 Bft) 97,87 %
27.05.2019 04:30 14,2 C 12,8 C 12,8 C 96 % 1008,9 hPa 0,0 l/m 0 min 2 min 0 W/m 6,4 km/h (2 Bft) 95,74 %
27.05.2019 04:32 14,2 C 12,8 C 12,8 C 96 % 1009,0 hPa 0,0 l/m 0 min 2 min 0 W/m 6,4 km/h (2 Bft) 97,83 %
27.05.2019 04:34 14,2 C 12,8 C 12,8 C 96 % 1009,0 hPa 0,2 l/m 0 min 2 min 0 W/m 6,4 km/h (2 Bft) 97,87 %
27.05.2019 04:36 14,2 C 12,8 C 12,8 C 96 % 1008,9 hPa 0,0 l/m 0 min 2 min 0 W/m 9,7 km/h (2 Bft) 97,87 %
27.05.2019 04:38 14,2 C 12,8 C 12,8 C 96 % 1009,0 hPa 0,0 l/m 0 min 2 min 0 W/m 3,2 km/h (1 Bft) 97,87 %
27.05.2019 04:40 14,2 C 12,8 C 12,8 C 96 % 1008,9 hPa 0,0 l/m 0 min 0 min 0 W/m 3,2 km/h (1 Bft) 95,74 %
27.05.2019 04:42 14,2 C 12,8 C 12,8 C 96 % 1008,9 hPa 0,0 l/m 0 min 0 min 0 W/m 3,2 km/h (1 Bft) 97,87 %
27.05.2019 04:44 14,2 C 12,8 C 12,8 C 96 % 1008,9 hPa 0,0 l/m 0 min 0 min 0 W/m 6,4 km/h (2 Bft) 97,83 %
27.05.2019 04:46 14,2 C 12,8 C 12,8 C 96 % 1008,9 hPa 0,0 l/m 0 min 2 min 0 W/m 6,4 km/h (2 Bft) 97,87 %
27.05.2019 04:48 14,2 C 12,8 C 12,8 C 96 % 1008,9 hPa 0,0 l/m 0 min 2 min 0 W/m 3,2 km/h (1 Bft) 97,87 %
27.05.2019 04:50 14,2 C 12,8 C 12,8 C 96 % 1008,9 hPa 0,2 l/m 0 min 2 min 0 W/m 3,2 km/h (1 Bft) 97,87 %
27.05.2019 04:52 14,2 C 12,8 C 12,8 C 96 % 1008,9 hPa 0,2 l/m 0 min 2 min 0 W/m 6,4 km/h (2 Bft) 97,87 %
27.05.2019 04:54 14,2 C 12,8 C 12,8 C 96 % 1008,9 hPa 0,0 l/m 0 min 2 min 0 W/m 12,9 km/h (3 Bft) 100,00 %
27.05.2019 04:56 14,2 C 12,8 C 12,8 C 96 % 1008,9 hPa 0,0 l/m 0 min 2 min 0 W/m 9,7 km/h (2 Bft) 97,83 %
27.05.2019 04:58 14,2 C 12,8 C 12,8 C 96 % 1008,9 hPa 0,0 l/m 0 min 2 min 0 W/m 6,4 km/h (2 Bft) 100,00 %
27.05.2019 05:00 14,2 C 12,8 C 12,8 C 96 % 1008,9 hPa 0,0 l/m 0 min 0 min 0 W/m 3,2 km/h (1 Bft) 100,00 %
27.05.2019 05:02 14,2 C 12,8 C 12,8 C 96 % 1008,9 hPa 0,0 l/m 0 min 0 min 0 W/m 6,4 km/h (2 Bft) 100,00 %
27.05.2019 05:04 14,2 C 12,8 C 12,8 C 96 % 1008,9 hPa 0,0 l/m 0 min 0 min 0 W/m 6,4 km/h (2 Bft) 100,00 %
27.05.2019 05:05 14,1 C 12,8 C 12,8 C 96 % 1009,0 hPa 0,0 l/m 0 min 0 min 0 W/m 6,4 km/h (2 Bft) 100,00 %
27.05.2019 05:10 14,1 C 12,8 C 12,8 C 96 % 1009,0 hPa 0,0 l/m 0 min 5 min 0 W/m 9,7 km/h (2 Bft) 100,00 %
27.05.2019 05:12 14,1 C 12,8 C 12,8 C 97 % 1009,0 hPa 0,0 l/m 0 min 2 min 0 W/m 3,2 km/h (1 Bft) 100,00 %
27.05.2019 05:14 14,1 C 12,8 C 12,8 C 97 % 1009,0 hPa 0,0 l/m 0 min 2 min 0 W/m 6,4 km/h (2 Bft) 100,00 %
27.05.2019 05:16 14,1 C 12,8 C 12,8 C 97 % 1009,3 hPa 0,0 l/m 0 min 2 min 0 W/m 12,9 km/h (3 Bft) 100,00 %
27.05.2019 05:18 14,1 C 12,2 C 12,8 C 97 % 1009,3 hPa 0,6 l/m 0 min 2 min 0 W/m 12,9 km/h (3 Bft) 97,96 %
27.05.2019 05:20 13,9 C 12,2 C 12,2 C 97 % 1009,3 hPa 0,0 l/m 0 min 2 min 0 W/m 16,1 km/h (3 Bft) 100,00 %
27.05.2019 05:22 13,8 C 11,7 C 11,7 C 96 % 1009,3 hPa 0,0 l/m 0 min 2 min 0 W/m 6,4 km/h (2 Bft) 100,00 %
27.05.2019 05:24 13,7 C 11,7 C 11,7 C 96 % 1009,2 hPa 0,0 l/m 0 min 2 min 0 W/m 0,0 km/h (0 Bft) 100,00 %
27.05.2019 05:26 13,7 C 11,7 C 11,7 C 96 % 1009,3 hPa 0,2 l/m 0 min 2 min 0 W/m 3,2 km/h (1 Bft) 100,00 %
27.05.2019 05:28 13,6 C 11,7 C 11,7 C 96 % 1009,3 hPa 0,0 l/m 0 min 2 min 0 W/m 9,7 km/h (2 Bft) 100,00 %
27.05.2019 05:30 13,4 C 11,7 C 11,7 C 96 % 1009,2 hPa 0,0 l/m 0 min 0 min 0 W/m 3,2 km/h (1 Bft) 100,00 %
27.05.2019 05:32 13,4 C 11,7 C 11,7 C 96 % 1009,2 hPa 0,0 l/m 0 min 0 min 0 W/m 0,0 km/h (0 Bft) 100,00 %
27.05.2019 05:34 13,3 C 11,7 C 11,7 C 96 % 1009,3 hPa 0,0 l/m 0 min 0 min 0 W/m 0,0 km/h (0 Bft) 100,00 %
27.05.2019 05:36 13,3 C 11,7 C 11,7 C 96 % 1009,3 hPa 0,0 l/m 0 min 0 min 0 W/m 3,2 km/h (1 Bft) 100,00 %
27.05.2019 05:38 13,2 C 11,7 C 11,7 C 96 % 1009,3 hPa 0,0 l/m 0 min 0 min 0 W/m 3,2 km/h (1 Bft) 100,00 %
27.05.2019 05:40 13,2 C 11,7 C 11,7 C 96 % 1009,3 hPa 0,0 l/m 0 min 0 min 0 W/m 3,2 km/h (1 Bft) 100,00 %
27.05.2019 05:42 13,1 C 11,7 C 11,7 C 96 % 1009,3 hPa 0,0 l/m 0 min 0 min 0 W/m 0,0 km/h (0 Bft) 97,96 %
27.05.2019 05:44 13,1 C 11,7 C 11,7 C 96 % 1009,4 hPa 0,0 l/m 0 min 0 min 0 W/m 16,1 km/h (3 Bft) 100,00 %
27.05.2019 05:46 13,0 C 11,7 C 11,1 C 96 % 1009,4 hPa 0,0 l/m 0 min 2 min 0 W/m 0,0 km/h (0 Bft) 100,00 %
27.05.2019 05:48 13,0 C 11,7 C 11,1 C 96 % 1009,4 hPa 0,0 l/m 0 min 2 min 0 W/m 0,0 km/h (0 Bft) 97,83 %
27.05.2019 05:50 12,9 C 11,7 C 11,1 C 96 % 1009,4 hPa 0,0 l/m 0 min 2 min 0 W/m 0,0 km/h (0 Bft) 97,87 %
27.05.2019 05:52 12,9 C 11,7 C 11,1 C 96 % 1009,4 hPa 0,0 l/m 0 min 2 min 3 W/m 6,4 km/h (2 Bft) 97,62 %
27.05.2019 05:54 12,9 C 11,1 C 11,1 C 96 % 1009,4 hPa 0,0 l/m 0 min 2 min 6 W/m 0,0 km/h (0 Bft) 97,96 %
27.05.2019 05:56 12,8 C 11,7 C 11,1 C 96 % 1009,4 hPa 0,0 l/m 0 min 2 min 5 W/m 0,0 km/h (0 Bft) 97,87 %
27.05.2019 05:58 12,8 C 11,7 C 11,1 C 96 % 1009,3 hPa 0,0 l/m 0 min 0 min 5 W/m 0,0 km/h (0 Bft) 97,96 %
27.05.2019 06:00 12,8 C 11,7 C 11,1 C 96 % 1009,3 hPa 0,0 l/m 0 min 0 min 6 W/m 0,0 km/h (0 Bft) 97,87 %
27.05.2019 06:02 12,8 C 11,1 C 11,1 C 96 % 1009,3 hPa 0,0 l/m 0 min 0 min 7 W/m 12,9 km/h (3 Bft) 95,74 %
27.05.2019 06:04 12,7 C 11,7 C 11,1 C 96 % 1009,3 hPa 0,0 l/m 0 min 0 min 10 W/m 0,0 km/h (0 Bft) 97,87 %
27.05.2019 06:08 12,7 C 11,7 C 11,1 C 96 % 1009,4 hPa 0,0 l/m 0 min 0 min 12 W/m 0,0 km/h (0 Bft) 97,87 %
27.05.2019 06:10 12,7 C 11,7 C 11,1 C 96 % 1009,4 hPa 0,0 l/m 0 min 0 min 14 W/m 0,0 km/h (0 Bft) 97,83 %
27.05.2019 06:12 12,7 C 11,7 C 11,1 C 96 % 1009,4 hPa 0,0 l/m 0 min 2 min 14 W/m 0,0 km/h (0 Bft) 97,96 %
27.05.2019 06:14 12,7 C 11,7 C 11,1 C 96 % 1009,5 hPa 0,0 l/m 0 min 0 min 14 W/m 9,7 km/h (2 Bft) 93,75 %
27.05.2019 06:16 12,6 C 11,7 C 11,7 C 96 % 1009,5 hPa 0,0 l/m 0 min 0 min 18 W/m 6,4 km/h (2 Bft) 97,87 %
27.05.2019 06:18 12,6 C 11,7 C 11,1 C 96 % 1009,5 hPa 0,0 l/m 0 min 0 min 23 W/m 6,4 km/h (2 Bft) 97,87 %
27.05.2019 06:20 12,6 C 11,7 C 11,1 C 96 % 1009,5 hPa 0,0 l/m 0 min 0 min 23 W/m 3,2 km/h (1 Bft) 97,62 %
27.05.2019 06:22 12,6 C 11,7 C 11,1 C 96 % 1009,5 hPa 0,0 l/m 0 min 2 min 21 W/m 3,2 km/h (1 Bft) 93,75 %
27.05.2019 06:24 12,6 C 11,7 C 11,1 C 96 % 1009,5 hPa 0,0 l/m 0 min 2 min 21 W/m 3,2 km/h (1 Bft) 93,88 %
27.05.2019 06:26 12,6 C 11,1 C 11,1 C 96 % 1009,6 hPa 0,0 l/m 0 min 2 min 19 W/m 6,4 km/h (2 Bft) 93,75 %
27.05.2019 06:28 12,6 C 11,1 C 11,1 C 97 % 1009,5 hPa 0,0 l/m 0 min 2 min 17 W/m 6,4 km/h (2 Bft) 95,74 %
27.05.2019 06:30 12,5 C 11,1 C 11,1 C 97 % 1009,5 hPa 0,0 l/m 0 min 0 min 16 W/m 3,2 km/h (1 Bft) 95,74 %
27.05.2019 06:32 12,5 C 11,1 C 11,1 C 97 % 1009,5 hPa 0,0 l/m 0 min 0 min 18 W/m 3,2 km/h (1 Bft) 95,24 %
27.05.2019 06:34 12,5 C 11,1 C 11,1 C 97 % 1009,5 hPa 0,0 l/m 0 min 0 min 18 W/m 3,2 km/h (1 Bft) 95,92 %
27.05.2019 06:36 12,4 C 11,1 C 11,1 C 96 % 1009,6 hPa 0,0 l/m 0 min 0 min 16 W/m 3,2 km/h (1 Bft) 95,92 %
27.05.2019 06:38 12,4 C 11,1 C 11,1 C 96 % 1009,6 hPa 0,0 l/m 0 min 2 min 16 W/m 0,0 km/h (0 Bft) 93,62 %
27.05.2019 06:40 12,4 C 11,1 C 11,1 C 96 % 1009,6 hPa 0,0 l/m 0 min 0 min 15 W/m 0,0 km/h (0 Bft) 95,74 %
27.05.2019 06:42 12,4 C 11,1 C 11,1 C 96 % 1009,7 hPa 0,0 l/m 0 min 0 min 14 W/m 3,2 km/h (1 Bft) 95,74 %
27.05.2019 06:44 12,4 C 11,1 C 11,1 C 96 % 1009,6 hPa 0,0 l/m 0 min 0 min 14 W/m 0,0 km/h (0 Bft) 95,24 %
27.05.2019 06:46 12,4 C 11,7 C 11,1 C 97 % 1009,5 hPa 0,0 l/m 0 min 0 min 17 W/m 0,0 km/h (0 Bft) 93,62 %
27.05.2019 06:48 12,4 C 11,1 C 11,1 C 97 % 1009,5 hPa 0,0 l/m 0 min 0 min 18 W/m 0,0 km/h (0 Bft) 95,92 %
27.05.2019 06:50 12,4 C 11,1 C 11,1 C 97 % 1009,7 hPa 0,0 l/m 0 min 0 min 15 W/m 0,0 km/h (0 Bft) 97,96 %
27.05.2019 06:52 12,4 C 11,1 C 11,1 C 97 % 1009,5 hPa 0,0 l/m 0 min 0 min 14 W/m 0,0 km/h (0 Bft) 97,87 %
27.05.2019 06:54 12,4 C 11,1 C 11,1 C 97 % 1009,5 hPa 0,0 l/m 0 min 0 min 15 W/m 0,0 km/h (0 Bft) 95,74 %
27.05.2019 06:56 12,4 C 11,1 C 11,1 C 97 % 1009,6 hPa 0,0 l/m 0 min 0 min 17 W/m 3,2 km/h (1 Bft) 97,83 %
27.05.2019 06:58 12,4 C 11,7 C 11,1 C 97 % 1009,7 hPa 0,0 l/m 0 min 0 min 20 W/m 0,0 km/h (0 Bft) 93,18 %
27.05.2019 07:00 12,4 C 11,7 C 11,1 C 97 % 1009,7 hPa 0,0 l/m 0 min 0 min 21 W/m 0,0 km/h (0 Bft) 97,87 %
27.05.2019 07:02 12,4 C 11,1 C 11,1 C 97 % 1009,7 hPa 0,0 l/m 0 min 0 min 21 W/m 3,2 km/h (1 Bft) 94,00 %
27.05.2019 07:04 12,4 C 11,7 C 11,1 C 97 % 1009,8 hPa 0,0 l/m 0 min 0 min 22 W/m 0,0 km/h (0 Bft) 95,74 %
27.05.2019 07:06 12,4 C 11,1 C 11,1 C 97 % 1009,8 hPa 0,0 l/m 0 min 0 min 18 W/m 6,4 km/h (2 Bft) 95,45 %
27.05.2019 07:08 12,4 C 11,1 C 11,1 C 97 % 1009,9 hPa 0,0 l/m 0 min 0 min 17 W/m 0,0 km/h (0 Bft) 95,83 %
27.05.2019 07:10 12,4 C 11,1 C 11,1 C 97 % 1009,8 hPa 0,0 l/m 0 min 0 min 19 W/m 0,0 km/h (0 Bft) 97,92 %
27.05.2019 07:12 12,4 C 11,7 C 11,1 C 97 % 1009,9 hPa 0,0 l/m 0 min 0 min 26 W/m 0,0 km/h (0 Bft) 97,87 %
27.05.2019 07:14 12,4 C 11,7 C 11,1 C 97 % 1009,9 hPa 0,0 l/m 0 min 0 min 31 W/m 3,2 km/h (1 Bft) 97,87 %
27.05.2019 07:16 12,4 C 11,7 C 11,7 C 97 % 1009,9 hPa 0,0 l/m 0 min 0 min 33 W/m 3,2 km/h (1 Bft) 97,62 %
27.05.2019 07:18 12,4 C 11,7 C 11,7 C 97 % 1009,9 hPa 0,0 l/m 0 min 0 min 38 W/m 0,0 km/h (0 Bft) 97,96 %
27.05.2019 07:20 12,4 C 11,7 C 11,7 C 97 % 1009,9 hPa 0,0 l/m 0 min 0 min 35 W/m 0,0 km/h (0 Bft) 95,83 %
27.05.2019 07:22 12,4 C 11,7 C 11,1 C 97 % 1009,9 hPa 0,0 l/m 0 min 0 min 31 W/m 3,2 km/h (1 Bft) 97,92 %
27.05.2019 07:24 12,4 C 11,7 C 11,1 C 97 % 1009,9 hPa 0,0 l/m 0 min 2 min 29 W/m 3,2 km/h (1 Bft) 97,87 %
27.05.2019 07:26 12,4 C 11,7 C 11,1 C 97 % 1010,0 hPa 0,0 l/m 0 min 0 min 35 W/m 0,0 km/h (0 Bft) 97,87 %
27.05.2019 07:28 12,4 C 11,7 C 11,1 C 97 % 1009,9 hPa 0,0 l/m 0 min 0 min 41 W/m 3,2 km/h (1 Bft) 97,62 %
27.05.2019 07:30 12,4 C 11,7 C 11,1 C 97 % 1009,9 hPa 0,0 l/m 0 min 0 min 48 W/m 0,0 km/h (0 Bft) 97,96 %
27.05.2019 07:32 12,4 C 11,7 C 11,7 C 97 % 1010,0 hPa 0,0 l/m 0 min 0 min 48 W/m 6,4 km/h (2 Bft) 97,37 %
27.05.2019 07:34 12,4 C 11,7 C 11,7 C 97 % 1010,1 hPa 0,0 l/m 0 min 0 min 47 W/m 3,2 km/h (1 Bft) 98,33 %
27.05.2019 07:36 12,4 C 11,7 C 11,7 C 97 % 1010,1 hPa 0,0 l/m 0 min 0 min 47 W/m 0,0 km/h (0 Bft) 97,92 %
27.05.2019 07:38 12,4 C 11,7 C 11,7 C 97 % 1010,1 hPa 0,0 l/m 0 min 0 min 51 W/m 3,2 km/h (1 Bft) 97,87 %
27.05.2019 07:40 12,4 C 11,7 C 11,7 C 97 % 1010,1 hPa 0,0 l/m 0 min 0 min 57 W/m 0,0 km/h (0 Bft) 97,87 %
27.05.2019 07:42 12,4 C 12,2 C 11,7 C 97 % 1010,1 hPa 0,0 l/m 0 min 0 min 62 W/m 0,0 km/h (0 Bft) 97,62 %
27.05.2019 07:44 12,5 C 12,2 C 11,7 C 97 % 1010,1 hPa 0,0 l/m 0 min 0 min 63 W/m 0,0 km/h (0 Bft) 97,92 %
27.05.2019 07:46 12,5 C 12,2 C 11,7 C 97 % 1010,1 hPa 0,0 l/m 0 min 0 min 64 W/m 0,0 km/h (0 Bft) 97,96 %
27.05.2019 07:48 12,5 C 12,2 C 11,7 C 97 % 1010,2 hPa 0,0 l/m 0 min 0 min 68 W/m 3,2 km/h (1 Bft) 95,83 %
27.05.2019 07:50 12,6 C 12,2 C 11,7 C 97 % 1010,2 hPa 0,0 l/m 0 min 0 min 70 W/m 3,2 km/h (1 Bft) 97,87 %
27.05.2019 07:52 12,6 C 12,2 C 11,7 C 97 % 1010,2 hPa 0,0 l/m 0 min 0 min 71 W/m 3,2 km/h (1 Bft) 97,87 %
27.05.2019 07:54 12,6 C 12,2 C 11,7 C 97 % 1010,2 hPa 0,0 l/m 0 min 0 min 78 W/m 6,4 km/h (2 Bft) 97,56 %
27.05.2019 07:56 12,6 C 12,2 C 11,7 C 97 % 1010,3 hPa 0,0 l/m 0 min 0 min 93 W/m 3,2 km/h (1 Bft) 100,00 %
27.05.2019 07:58 12,6 C 12,2 C 12,2 C 97 % 1010,2 hPa 0,0 l/m 0 min 0 min 104 W/m 3,2 km/h (1 Bft) 100,00 %
27.05.2019 08:00 12,7 C 12,8 C 12,2 C 97 % 1010,2 hPa 0,0 l/m 0 min 0 min 110 W/m 6,4 km/h (2 Bft) 100,00 %
27.05.2019 08:02 12,7 C 12,8 C 12,2 C 97 % 1010,3 hPa 0,0 l/m 0 min 0 min 110 W/m 0,0 km/h (0 Bft) 97,87 %
27.05.2019 08:04 12,7 C 12,8 C 12,2 C 97 % 1010,1 hPa 0,0 l/m 0 min 0 min 100 W/m 0,0 km/h (0 Bft) 97,87 %
27.05.2019 08:06 12,7 C 12,8 C 12,2 C 97 % 1010,2 hPa 0,0 l/m 0 min 0 min 103 W/m 0,0 km/h (0 Bft) 100,00 %
27.05.2019 08:08 12,7 C 12,8 C 12,2 C 97 % 1010,2 hPa 0,0 l/m 0 min 0 min 112 W/m 0,0 km/h (0 Bft) 100,00 %
27.05.2019 08:10 12,7 C 12,8 C 12,2 C 97 % 1010,2 hPa 0,0 l/m 0 min 0 min 120 W/m 3,2 km/h (1 Bft) 100,00 %
27.05.2019 08:12 12,8 C 12,8 C 12,2 C 97 % 1010,2 hPa 0,0 l/m 0 min 0 min 129 W/m 6,4 km/h (2 Bft) 100,00 %
27.05.2019 08:14 12,8 C 12,8 C 12,2 C 97 % 1010,3 hPa 0,0 l/m 0 min 0 min 119 W/m 3,2 km/h (1 Bft) 100,00 %
27.05.2019 08:16 12,9 C 13,3 C 12,2 C 97 % 1010,2 hPa 0,0 l/m 0 min 0 min 121 W/m 0,0 km/h (0 Bft) 100,00 %
27.05.2019 08:18 12,9 C 13,3 C 12,8 C 97 % 1010,2 hPa 0,0 l/m 0 min 0 min 131 W/m 3,2 km/h (1 Bft) 100,00 %
27.05.2019 08:20 13,0 C 13,9 C 12,8 C 98 % 1010,1 hPa 0,0 l/m 0 min 0 min 136 W/m 0,0 km/h (0 Bft) 100,00 %
27.05.2019 08:22 13,0 C 14,4 C 12,8 C 98 % 1010,1 hPa 0,0 l/m 0 min 0 min 139 W/m 3,2 km/h (1 Bft) 100,00 %
27.05.2019 08:24 13,1 C 15,0 C 12,8 C 98 % 1010,1 hPa 0,0 l/m 0 min 0 min 121 W/m 6,4 km/h (2 Bft) 97,96 %
27.05.2019 08:26 13,1 C 14,4 C 12,8 C 98 % 1010,3 hPa 0,0 l/m 0 min 0 min 100 W/m 6,4 km/h (2 Bft) 100,00 %
27.05.2019 08:28 13,1 C 13,9 C 12,8 C 98 % 1010,4 hPa 0,0 l/m 0 min 0 min 85 W/m 3,2 km/h (1 Bft) 100,00 %
27.05.2019 08:30 13,2 C 13,9 C 12,8 C 97 % 1010,4 hPa 0,0 l/m 0 min 0 min 75 W/m 3,2 km/h (1 Bft) 100,00 %
27.05.2019 08:32 13,2 C 15,0 C 13,9 C 97 % 1010,4 hPa 0,0 l/m 0 min 0 min 80 W/m 6,4 km/h (2 Bft) 100,00 %
27.05.2019 08:34 13,3 C 16,1 C 15,0 C 97 % 1010,4 hPa 0,0 l/m 0 min 0 min 82 W/m 9,7 km/h (2 Bft) 100,00 %
27.05.2019 08:36 13,4 C 16,1 C 15,0 C 98 % 1010,4 hPa 0,0 l/m 0 min 0 min 85 W/m 3,2 km/h (1 Bft) 97,67 %
27.05.2019 08:38 13,4 C 16,7 C 15,6 C 98 % 1010,5 hPa 0,0 l/m 0 min 0 min 99 W/m 6,4 km/h (2 Bft) 100,00 %
27.05.2019 08:40 13,5 C 17,2 C 16,1 C 98 % 1010,5 hPa 0,0 l/m 0 min 0 min 154 W/m 3,2 km/h (1 Bft) 100,00 %
27.05.2019 08:42 13,7 C 17,2 C 15,6 C 98 % 1010,5 hPa 0,0 l/m 0 min 0 min 213 W/m 6,4 km/h (2 Bft) 100,00 %
27.05.2019 08:44 13,8 C 17,2 C 15,6 C 98 % 1010,6 hPa 0,0 l/m 2 min 0 min 278 W/m 19,3 km/h (3 Bft) 100,00 %
27.05.2019 08:46 13,8 C 16,1 C 14,4 C 98 % 1010,6 hPa 0,0 l/m 2 min 0 min 242 W/m 3,2 km/h (1 Bft) 100,00 %
27.05.2019 08:48 13,9 C 15,6 C 13,9 C 98 % 1010,5 hPa 0,0 l/m 0 min 0 min 200 W/m 6,4 km/h (2 Bft) 100,00 %
27.05.2019 08:50 13,9 C 15,0 C 13,9 C 97 % 1010,5 hPa 0,0 l/m 0 min 0 min 183 W/m 3,2 km/h (1 Bft) 100,00 %
27.05.2019 08:52 13,9 C 14,4 C 13,3 C 97 % 1010,5 hPa 0,0 l/m 0 min 0 min 163 W/m 6,4 km/h (2 Bft) 100,00 %
27.05.2019 08:54 13,9 C 14,4 C 13,3 C 97 % 1010,4 hPa 0,0 l/m 0 min 0 min 163 W/m 3,2 km/h (1 Bft) 100,00 %
27.05.2019 08:56 14,0 C 15,0 C 13,9 C 97 % 1010,5 hPa 0,0 l/m 0 min 0 min 174 W/m 6,4 km/h (2 Bft) 97,87 %
27.05.2019 08:58 14,0 C 15,0 C 13,9 C 97 % 1010,5 hPa 0,0 l/m 0 min 0 min 183 W/m 3,2 km/h (1 Bft) 97,62 %
27.05.2019 09:00 14,0 C 15,0 C 13,9 C 97 % 1010,5 hPa 0,0 l/m 0 min 0 min 142 W/m 3,2 km/h (1 Bft) 97,87 %
27.05.2019 09:02 14,1 C 15,0 C 13,9 C 97 % 1010,5 hPa 0,0 l/m 0 min 0 min 166 W/m 3,2 km/h (1 Bft) 92,00 %
27.05.2019 09:04 14,1 C 15,6 C 14,4 C 97 % 1010,5 hPa 0,0 l/m 0 min 0 min 234 W/m 3,2 km/h (1 Bft) 93,48 %
27.05.2019 09:06 14,2 C 16,1 C 16,1 C 96 % 1010,5 hPa 0,0 l/m 2 min 0 min 308 W/m 3,2 km/h (1 Bft) 95,92 %
27.05.2019 09:08 14,2 C 17,2 C 17,8 C 96 % 1010,6 hPa 0,0 l/m 2 min 0 min 463 W/m 3,2 km/h (1 Bft) 95,74 %
27.05.2019 09:10 14,2 C 17,2 C 17,8 C 96 % 1010,5 hPa 0,0 l/m 2 min 0 min 548 W/m 22,5 km/h (4 Bft) 95,74 %
27.05.2019 09:12 14,2 C 16,7 C 17,2 C 96 % 1010,6 hPa 0,0 l/m 2 min 0 min 362 W/m 9,7 km/h (2 Bft) 92,86 %
27.05.2019 09:14 14,2 C 15,6 C 16,1 C 96 % 1010,5 hPa 0,0 l/m 0 min 0 min 222 W/m 9,7 km/h (2 Bft) 95,92 %
27.05.2019 09:16 14,3 C 15,6 C 15,6 C 95 % 1010,6 hPa 0,0 l/m 0 min 0 min 194 W/m 3,2 km/h (1 Bft) 95,83 %
27.05.2019 09:18 14,3 C 16,1 C 16,1 C 95 % 1010,5 hPa 0,0 l/m 0 min 0 min 253 W/m 9,7 km/h (2 Bft) 93,75 %
27.05.2019 09:20 14,4 C 16,1 C 15,6 C 94 % 1010,5 hPa 0,0 l/m 0 min 0 min 248 W/m 9,7 km/h (2 Bft) 95,74 %
27.05.2019 09:22 14,4 C 15,6 C 15,6 C 94 % 1010,5 hPa 0,0 l/m 0 min 0 min 209 W/m 9,7 km/h (2 Bft) 93,62 %
27.05.2019 09:24 14,5 C 15,6 C 15,6 C 94 % 1010,5 hPa 0,0 l/m 0 min 0 min 244 W/m 6,4 km/h (2 Bft) 95,24 %
27.05.2019 09:26 14,6 C 16,1 C 15,6 C 93 % 1010,5 hPa 0,0 l/m 0 min 0 min 263 W/m 3,2 km/h (1 Bft) 95,92 %
27.05.2019 09:28 14,6 C 15,6 C 15,6 C 93 % 1010,4 hPa 0,0 l/m 0 min 0 min 232 W/m 6,4 km/h (2 Bft) 95,83 %
27.05.2019 09:30 14,6 C 16,1 C 15,6 C 93 % 1010,4 hPa 0,0 l/m 0 min 0 min 223 W/m 3,2 km/h (1 Bft) 95,83 %
27.05.2019 09:32 14,7 C 16,7 C 15,6 C 93 % 1010,4 hPa 0,0 l/m 0 min 0 min 233 W/m 6,4 km/h (2 Bft) 91,49 %
27.05.2019 09:34 14,7 C 17,2 C 15,6 C 92 % 1010,4 hPa 0,0 l/m 0 min 0 min 252 W/m 3,2 km/h (1 Bft) 95,74 %
27.05.2019 09:36 14,8 C 17,2 C 16,1 C 92 % 1010,5 hPa 0,0 l/m 0 min 0 min 267 W/m 6,4 km/h (2 Bft) 97,67 %
27.05.2019 09:38 14,8 C 17,2 C 16,1 C 91 % 1010,4 hPa 0,0 l/m 0 min 0 min 250 W/m 9,7 km/h (2 Bft) 97,92 %
27.05.2019 09:40 14,8 C 17,2 C 15,6 C 91 % 1010,5 hPa 0,0 l/m 0 min 0 min 208 W/m 12,9 km/h (3 Bft) 97,96 %
27.05.2019 09:42 14,8 C 16,7 C 15,6 C 91 % 1010,4 hPa 0,0 l/m 0 min 0 min 165 W/m 6,4 km/h (2 Bft) 97,87 %
27.05.2019 09:44 14,9 C 16,1 C 15,0 C 90 % 1010,4 hPa 0,0 l/m 0 min 0 min 106 W/m 0,0 km/h (0 Bft) 91,49 %
27.05.2019 09:46 14,9 C 15,6 C 14,4 C 90 % 1010,5 hPa 0,0 l/m 0 min 0 min 93 W/m 3,2 km/h (1 Bft) 97,87 %
27.05.2019 09:48 14,9 C 15,6 C 14,4 C 90 % 1010,5 hPa 0,0 l/m 0 min 0 min 133 W/m 0,0 km/h (0 Bft) 100,00 %
27.05.2019 09:50 14,9 C 19,4 C 17,8 C 90 % 1010,5 hPa 0,0 l/m 2 min 0 min 348 W/m 0,0 km/h (0 Bft) 100,00 %
27.05.2019 09:52 15,1 C 21,7 C 20,0 C 90 % 1010,5 hPa 0,0 l/m 2 min 0 min 652 W/m 3,2 km/h (1 Bft) 97,92 %
27.05.2019 09:54 15,2 C 22,8 C 21,1 C 90 % 1010,5 hPa 0,0 l/m 2 min 0 min 615 W/m 6,4 km/h (2 Bft) 100,00 %
27.05.2019 09:56 15,3 C 22,8 C 21,1 C 90 % 1010,5 hPa 0,0 l/m 2 min 0 min 478 W/m 3,2 km/h (1 Bft) 100,00 %
27.05.2019 09:58 15,4 C 21,7 C 20,0 C 90 % 1010,5 hPa 0,0 l/m 2 min 0 min 689 W/m 6,4 km/h (2 Bft) 100,00 %
27.05.2019 10:00 15,6 C 22,8 C 21,1 C 89 % 1010,4 hPa 0,0 l/m 2 min 0 min 690 W/m 6,4 km/h (2 Bft) 100,00 %
27.05.2019 10:02 15,7 C 23,3 C 21,7 C 89 % 1010,5 hPa 0,0 l/m 2 min 0 min 701 W/m 3,2 km/h (1 Bft) 97,96 %
27.05.2019 10:04 15,8 C 23,3 C 22,2 C 88 % 1010,5 hPa 0,0 l/m 2 min 0 min 695 W/m 9,7 km/h (2 Bft) 100,00 %
27.05.2019 10:06 15,9 C 22,2 C 21,1 C 86 % 1010,5 hPa 0,0 l/m 2 min 0 min 563 W/m 16,1 km/h (3 Bft) 98,00 %
27.05.2019 10:08 16,0 C 21,7 C 20,0 C 85 % 1010,5 hPa 0,0 l/m 2 min 0 min 401 W/m 9,7 km/h (2 Bft) 100,00 %
27.05.2019 10:10 16,1 C 21,7 C 20,0 C 85 % 1010,6 hPa 0,0 l/m 0 min 0 min 271 W/m 9,7 km/h (2 Bft) 100,00 %
27.05.2019 10:12 16,2 C 21,1 C 20,0 C 83 % 1010,5 hPa 0,0 l/m 2 min 0 min 444 W/m 6,4 km/h (2 Bft) 100,00 %
27.05.2019 10:14 16,3 C 20,0 C 18,3 C 82 % 1010,6 hPa 0,0 l/m 2 min 0 min 394 W/m 9,7 km/h (2 Bft) 100,00 %
27.05.2019 10:16 16,3 C 20,0 C 18,3 C 82 % 1010,5 hPa 0,0 l/m 0 min 0 min 260 W/m 6,4 km/h (2 Bft) 100,00 %
27.05.2019 10:18 16,4 C 20,6 C 19,4 C 81 % 1010,6 hPa 0,0 l/m 2 min 0 min 707 W/m 6,4 km/h (2 Bft) 100,00 %
27.05.2019 10:20 16,4 C 19,4 C 18,9 C 81 % 1010,5 hPa 0,0 l/m 2 min 0 min 518 W/m 9,7 km/h (2 Bft) 100,00 %
27.05.2019 10:22 16,5 C 20,0 C 18,9 C 80 % 1010,5 hPa 0,0 l/m 2 min 0 min 341 W/m 9,7 km/h (2 Bft) 100,00 %
27.05.2019 10:24 16,6 C 20,6 C 19,4 C 81 % 1010,5 hPa 0,0 l/m 2 min 0 min 449 W/m 3,2 km/h (1 Bft) 100,00 %
27.05.2019 10:26 16,6 C 20,6 C 19,4 C 81 % 1010,5 hPa 0,0 l/m 0 min 0 min 323 W/m 19,3 km/h (3 Bft) 97,92 %
27.05.2019 10:28 16,7 C 21,7 C 20,0 C 80 % 1010,5 hPa 0,0 l/m 0 min 0 min 269 W/m 12,9 km/h (3 Bft) 97,87 %
27.05.2019 10:30 16,7 C 21,7 C 20,6 C 79 % 1010,5 hPa 0,0 l/m 0 min 0 min 273 W/m 6,4 km/h (2 Bft) 97,83 %
27.05.2019 10:32 16,8 C 21,7 C 20,6 C 79 % 1010,5 hPa 0,0 l/m 2 min 0 min 419 W/m 12,9 km/h (3 Bft) 100,00 %
27.05.2019 10:34 16,8 C 21,1 C 20,0 C 79 % 1010,5 hPa 0,0 l/m 2 min 0 min 569 W/m 9,7 km/h (2 Bft) 100,00 %
27.05.2019 10:36 16,9 C 21,7 C 21,1 C 79 % 1010,5 hPa 0,0 l/m 2 min 0 min 446 W/m 6,4 km/h (2 Bft) 96,67 %
27.05.2019 10:38 17,0 C 21,1 C 20,0 C 79 % 1010,4 hPa 0,0 l/m 2 min 0 min 368 W/m 9,7 km/h (2 Bft) 100,00 %
27.05.2019 10:40 17,0 C 18,9 C 18,9 C 77 % 1010,5 hPa 0,0 l/m 0 min 0 min 306 W/m 9,7 km/h (2 Bft) 100,00 %
27.05.2019 10:42 17,0 C 18,9 C 17,8 C 77 % 1010,5 hPa 0,0 l/m 0 min 0 min 268 W/m 6,4 km/h (2 Bft) 100,00 %
27.05.2019 10:44 17,1 C 18,9 C 17,8 C 78 % 1010,5 hPa 0,0 l/m 0 min 0 min 287 W/m 6,4 km/h (2 Bft) 100,00 %
27.05.2019 10:46 17,1 C 19,4 C 17,8 C 78 % 1010,5 hPa 0,0 l/m 0 min 0 min 303 W/m 9,7 km/h (2 Bft) 97,96 %
27.05.2019 10:48 17,1 C 18,9 C 17,2 C 78 % 1010,4 hPa 0,0 l/m 0 min 0 min 293 W/m 6,4 km/h (2 Bft) 97,96 %
27.05.2019 10:50 17,1 C 20,6 C 19,4 C 77 % 1010,5 hPa 0,0 l/m 0 min 0 min 322 W/m 9,7 km/h (2 Bft) 100,00 %
27.05.2019 10:52 17,1 C 21,7 C 20,0 C 77 % 1010,5 hPa 0,0 l/m 2 min 0 min 369 W/m 9,7 km/h (2 Bft) 100,00 %
27.05.2019 10:54 17,1 C 20,0 C 18,9 C 78 % 1010,5 hPa 0,0 l/m 0 min 0 min 263 W/m 12,9 km/h (3 Bft) 95,74 %
27.05.2019 10:56 17,2 C 19,4 C 18,3 C 77 % 1010,4 hPa 0,0 l/m 0 min 0 min 233 W/m 6,4 km/h (2 Bft) 95,74 %
27.05.2019 10:58 17,2 C 18,9 C 17,8 C 77 % 1010,6 hPa 0,0 l/m 0 min 0 min 245 W/m 12,9 km/h (3 Bft) 97,67 %
27.05.2019 11:00 17,2 C 18,9 C 17,8 C 77 % 1010,5 hPa 0,0 l/m 0 min 0 min 303 W/m 9,7 km/h (2 Bft) 100,00 %
27.05.2019 11:02 17,1 C 18,3 C 17,8 C 76 % 1010,4 hPa 0,0 l/m 0 min 0 min 333 W/m 9,7 km/h (2 Bft) 100,00 %
27.05.2019 11:04 17,1 C 20,6 C 20,0 C 77 % 1010,4 hPa 0,0 l/m 2 min 0 min 371 W/m 6,4 km/h (2 Bft) 97,87 %
27.05.2019 11:06 17,2 C 22,2 C 21,7 C 77 % 1010,4 hPa 0,0 l/m 0 min 0 min 353 W/m 6,4 km/h (2 Bft) 97,67 %
27.05.2019 11:08 17,3 C 22,8 C 22,2 C 77 % 1010,4 hPa 0,0 l/m 2 min 0 min 679 W/m 9,7 km/h (2 Bft) 95,92 %
27.05.2019 11:10 17,4 C 21,1 C 20,6 C 75 % 1010,5 hPa 0,0 l/m 2 min 0 min 375 W/m 12,9 km/h (3 Bft) 97,96 %
27.05.2019 11:12 17,4 C 21,1 C 20,0 C 76 % 1010,5 hPa 0,0 l/m 0 min 0 min 255 W/m 6,4 km/h (2 Bft) 97,92 %
27.05.2019 11:14 17,5 C 21,1 C 20,0 C 75 % 1010,5 hPa 0,0 l/m 0 min 0 min 303 W/m 6,4 km/h (2 Bft) 97,92 %
27.05.2019 11:16 17,5 C 21,1 C 20,6 C 74 % 1010,5 hPa 0,0 l/m 0 min 0 min 320 W/m 9,7 km/h (2 Bft) 97,87 %
27.05.2019 11:18 17,6 C 21,7 C 20,6 C 74 % 1010,5 hPa 0,0 l/m 0 min 0 min 320 W/m 9,7 km/h (2 Bft) 95,74 %
27.05.2019 11:20 17,6 C 20,0 C 19,4 C 72 % 1010,5 hPa 0,0 l/m 0 min 0 min 329 W/m 12,9 km/h (3 Bft) 95,24 %
27.05.2019 11:22 17,6 C 21,1 C 20,6 C 72 % 1010,5 hPa 0,0 l/m 2 min 0 min 410 W/m 9,7 km/h (2 Bft) 91,84 %
27.05.2019 11:24 17,7 C 21,1 C 20,6 C 73 % 1010,5 hPa 0,0 l/m 2 min 0 min 429 W/m 12,9 km/h (3 Bft) 95,83 %
27.05.2019 11:26 17,7 C 22,8 C 22,2 C 73 % 1010,5 hPa 0,0 l/m 2 min 0 min 525 W/m 6,4 km/h (2 Bft) 95,83 %
27.05.2019 11:28 17,8 C 24,4 C 23,3 C 73 % 1010,4 hPa 0,0 l/m 2 min 0 min 925 W/m 16,1 km/h (3 Bft) 95,74 %
27.05.2019 11:30 18,0 C 25,6 C 25,0 C 74 % 1010,5 hPa 0,0 l/m 2 min 0 min 928 W/m 6,4 km/h (2 Bft) 95,74 %
27.05.2019 11:32 18,1 C 23,9 C 22,8 C 73 % 1010,5 hPa 0,0 l/m 2 min 0 min 793 W/m 9,7 km/h (2 Bft) 95,45 %
27.05.2019 11:34 18,2 C 21,7 C 21,1 C 72 % 1010,5 hPa 0,0 l/m 0 min 0 min 233 W/m 19,3 km/h (3 Bft) 93,62 %
27.05.2019 11:36 18,2 C 20,0 C 19,4 C 71 % 1010,5 hPa 0,0 l/m 0 min 0 min 206 W/m 12,9 km/h (3 Bft) 93,75 %
27.05.2019 11:38 18,2 C 20,0 C 20,0 C 71 % 1010,5 hPa 0,0 l/m 0 min 0 min 182 W/m 9,7 km/h (2 Bft) 91,67 %
27.05.2019 11:40 18,2 C 22,8 C 22,2 C 72 % 1010,5 hPa 0,0 l/m 0 min 0 min 200 W/m 6,4 km/h (2 Bft) 95,74 %
27.05.2019 11:42 18,2 C 21,1 C 21,1 C 70 % 1010,4 hPa 0,0 l/m 2 min 0 min 584 W/m 16,1 km/h (3 Bft) 95,74 %
27.05.2019 11:44 18,2 C 22,2 C 22,2 C 70 % 1010,4 hPa 0,0 l/m 2 min 0 min 420 W/m 9,7 km/h (2 Bft) 90,48 %
27.05.2019 11:46 18,2 C 21,1 C 21,1 C 70 % 1010,4 hPa 0,0 l/m 2 min 0 min 723 W/m 22,5 km/h (4 Bft) 91,84 %
27.05.2019 11:48 18,2 C 21,1 C 21,1 C 70 % 1010,4 hPa 0,0 l/m 0 min 0 min 255 W/m 12,9 km/h (3 Bft) 91,67 %
27.05.2019 11:50 18,2 C 23,3 C 23,3 C 70 % 1010,3 hPa 0,0 l/m 2 min 0 min 716 W/m 6,4 km/h (2 Bft) 93,75 %
27.05.2019 11:52 18,3 C 25,0 C 25,0 C 72 % 1010,3 hPa 0,0 l/m 2 min 0 min 930 W/m 6,4 km/h (2 Bft) 93,62 %
27.05.2019 11:54 18,6 C 26,1 C 26,1 C 73 % 1010,2 hPa 0,0 l/m 2 min 0 min 959 W/m 9,7 km/h (2 Bft) 93,62 %
27.05.2019 11:56 18,7 C 25,6 C 26,1 C 70 % 1010,2 hPa 0,0 l/m 2 min 0 min 992 W/m 12,9 km/h (3 Bft) 95,24 %
27.05.2019 11:58 18,8 C 25,6 C 26,1 C 68 % 1010,3 hPa 0,0 l/m 2 min 0 min 1000 W/m 16,1 km/h (3 Bft) 96,00 %
27.05.2019 12:00 19,0 C 26,1 C 26,1 C 69 % 1010,2 hPa 0,0 l/m 2 min 0 min 1000 W/m 9,7 km/h (2 Bft) 95,65 %
27.05.2019 12:02 19,2 C 26,1 C 26,1 C 71 % 1010,3 hPa 0,0 l/m 2 min 0 min 1000 W/m 9,7 km/h (2 Bft) 93,88 %
27.05.2019 12:04 19,3 C 26,7 C 26,7 C 70 % 1010,3 hPa 0,0 l/m 2 min 0 min 962 W/m 25,7 km/h (4 Bft) 95,74 %
27.05.2019 12:08 19,6 C 26,7 C 27,2 C 67 % 1010,2 hPa 0,0 l/m 4 min 0 min 951 W/m 12,9 km/h (3 Bft) 94,68 %
27.05.2019 12:10 19,7 C 26,7 C 27,2 C 66 % 1010,2 hPa 0,0 l/m 2 min 0 min 952 W/m 6,4 km/h (2 Bft) 93,62 %
27.05.2019 12:12 19,8 C 25,6 C 26,1 C 65 % 1010,3 hPa 0,0 l/m 2 min 0 min 956 W/m 16,1 km/h (3 Bft) 92,86 %
27.05.2019 12:14 19,8 C 26,1 C 26,1 C 63 % 1010,2 hPa 0,0 l/m 2 min 0 min 978 W/m 9,7 km/h (2 Bft) 95,92 %
27.05.2019 12:16 19,9 C 26,7 C 26,7 C 66 % 1010,2 hPa 0,0 l/m 2 min 0 min 981 W/m 6,4 km/h (2 Bft) 93,88 %
27.05.2019 12:18 20,1 C 27,2 C 27,2 C 65 % 1010,2 hPa 0,0 l/m 2 min 0 min 1032 W/m 9,7 km/h (2 Bft) 95,92 %
27.05.2019 12:20 20,1 C 26,7 C 27,2 C 64 % 1010,2 hPa 0,0 l/m 2 min 0 min 1071 W/m 9,7 km/h (2 Bft) 95,83 %
27.05.2019 12:22 20,2 C 26,1 C 26,1 C 63 % 1010,2 hPa 0,0 l/m 2 min 0 min 1071 W/m 9,7 km/h (2 Bft) 93,48 %
27.05.2019 12:24 20,2 C 25,6 C 25,0 C 64 % 1010,2 hPa 0,0 l/m 2 min 0 min 964 W/m 12,9 km/h (3 Bft) 93,62 %
27.05.2019 12:26 20,2 C 25,0 C 23,9 C 62 % 1010,3 hPa 0,0 l/m 0 min 0 min 316 W/m 9,7 km/h (2 Bft) 97,62 %
27.05.2019 12:28 20,3 C 25,6 C 26,1 C 64 % 1010,2 hPa 0,0 l/m 2 min 0 min 681 W/m 6,4 km/h (2 Bft) 91,49 %
27.05.2019 12:30 20,4 C 26,1 C 26,1 C 64 % 1010,3 hPa 0,0 l/m 2 min 0 min 1137 W/m 9,7 km/h (2 Bft) 95,92 %
27.05.2019 12:32 20,4 C 25,0 C 25,0 C 64 % 1010,2 hPa 0,0 l/m 2 min 0 min 947 W/m 12,9 km/h (3 Bft) 97,96 %
27.05.2019 12:34 20,5 C 23,9 C 23,9 C 64 % 1010,3 hPa 0,0 l/m 2 min 0 min 482 W/m 16,1 km/h (3 Bft) 97,87 %
27.05.2019 12:36 20,4 C 22,2 C 22,2 C 61 % 1010,2 hPa 0,0 l/m 0 min 0 min 308 W/m 16,1 km/h (3 Bft) 95,74 %
27.05.2019 12:38 20,4 C 21,7 C 21,1 C 63 % 1010,3 hPa 0,0 l/m 0 min 0 min 266 W/m 6,4 km/h (2 Bft) 100,00 %
27.05.2019 12:40 20,3 C 21,1 C 21,1 C 61 % 1010,3 hPa 0,0 l/m 0 min 0 min 280 W/m 9,7 km/h (2 Bft) 100,00 %
27.05.2019 12:42 20,2 C 23,9 C 23,9 C 61 % 1010,2 hPa 0,0 l/m 2 min 0 min 452 W/m 12,9 km/h (3 Bft) 100,00 %
27.05.2019 12:44 20,2 C 22,8 C 22,8 C 61 % 1010,2 hPa 0,0 l/m 2 min 0 min 941 W/m 16,1 km/h (3 Bft) 100,00 %
27.05.2019 12:46 20,1 C 22,8 C 22,2 C 64 % 1010,2 hPa 0,0 l/m 2 min 0 min 434 W/m 9,7 km/h (2 Bft) 100,00 %
27.05.2019 12:48 20,1 C 22,2 C 21,7 C 64 % 1010,2 hPa 0,0 l/m 2 min 0 min 428 W/m 9,7 km/h (2 Bft) 97,92 %
27.05.2019 12:50 20,2 C 24,4 C 23,9 C 66 % 1010,2 hPa 0,0 l/m 2 min 0 min 418 W/m 9,7 km/h (2 Bft) 100,00 %
27.05.2019 12:52 20,2 C 26,1 C 25,6 C 65 % 1010,3 hPa 0,0 l/m 2 min 0 min 418 W/m 9,7 km/h (2 Bft) 95,74 %
27.05.2019 12:54 20,3 C 27,8 C 26,7 C 63 % 1010,3 hPa 0,0 l/m 2 min 0 min 830 W/m 9,7 km/h (2 Bft) 100,00 %
27.05.2019 12:56 20,4 C 28,9 C 27,8 C 64 % 1010,3 hPa 0,0 l/m 2 min 0 min 1061 W/m 19,3 km/h (3 Bft) 100,00 %
27.05.2019 12:58 20,5 C 27,8 C 27,8 C 61 % 1010,3 hPa 0,0 l/m 2 min 0 min 1095 W/m 12,9 km/h (3 Bft) 98,00 %
27.05.2019 13:00 20,6 C 24,4 C 23,9 C 61 % 1010,3 hPa 0,0 l/m 2 min 0 min 639 W/m 16,1 km/h (3 Bft) 100,00 %
27.05.2019 13:02 20,6 C 22,2 C 21,7 C 59 % 1010,2 hPa 0,0 l/m 0 min 0 min 314 W/m 19,3 km/h (3 Bft) 100,00 %
27.05.2019 13:04 20,4 C 21,7 C 21,1 C 60 % 1010,3 hPa 0,0 l/m 0 min 0 min 341 W/m 12,9 km/h (3 Bft) 97,87 %
27.05.2019 13:06 20,3 C 20,6 C 20,6 C 61 % 1010,3 hPa 0,0 l/m 0 min 0 min 358 W/m 12,9 km/h (3 Bft) 100,00 %
27.05.2019 13:08 20,2 C 20,6 C 20,0 C 61 % 1010,2 hPa 0,0 l/m 0 min 0 min 345 W/m 12,9 km/h (3 Bft) 100,00 %
27.05.2019 13:10 20,1 C 20,0 C 20,0 C 61 % 1010,3 hPa 0,0 l/m 0 min 0 min 321 W/m 12,9 km/h (3 Bft) 100,00 %
27.05.2019 13:12 20,1 C 20,0 C 20,0 C 60 % 1010,3 hPa 0,0 l/m 0 min 0 min 347 W/m 12,9 km/h (3 Bft) 100,00 %
27.05.2019 13:14 20,0 C 20,0 C 20,0 C 62 % 1010,2 hPa 0,0 l/m 0 min 0 min 303 W/m 16,1 km/h (3 Bft) 100,00 %
27.05.2019 13:16 19,9 C 20,0 C 19,4 C 61 % 1010,2 hPa 0,0 l/m 0 min 0 min 271 W/m 9,7 km/h (2 Bft) 100,00 %
27.05.2019 13:18 19,8 C 20,0 C 19,4 C 62 % 1010,2 hPa 0,0 l/m 0 min 0 min 321 W/m 9,7 km/h (2 Bft) 100,00 %
27.05.2019 13:20 19,7 C 20,6 C 19,4 C 62 % 1010,2 hPa 0,0 l/m 0 min 0 min 377 W/m 9,7 km/h (2 Bft) 100,00 %
27.05.2019 13:22 19,7 C 21,1 C 20,0 C 63 % 1010,2 hPa 0,0 l/m 0 min 0 min 418 W/m 9,7 km/h (2 Bft) 100,00 %
27.05.2019 13:24 19,6 C 21,1 C 20,0 C 61 % 1010,3 hPa 0,0 l/m 2 min 0 min 420 W/m 16,1 km/h (3 Bft) 97,87 %
27.05.2019 13:26 19,6 C 21,1 C 20,0 C 63 % 1010,2 hPa 0,0 l/m 0 min 0 min 334 W/m 9,7 km/h (2 Bft) 100,00 %
27.05.2019 13:28 19,5 C 20,6 C 19,4 C 62 % 1010,2 hPa 0,0 l/m 0 min 0 min 310 W/m 12,9 km/h (3 Bft) 100,00 %
27.05.2019 13:30 19,4 C 20,0 C 19,4 C 61 % 1010,2 hPa 0,0 l/m 0 min 0 min 321 W/m 9,7 km/h (2 Bft) 97,96 %
27.05.2019 13:32 19,4 C 20,6 C 20,0 C 63 % 1010,2 hPa 0,0 l/m 0 min 0 min 357 W/m 9,7 km/h (2 Bft) 100,00 %
27.05.2019 13:34 19,4 C 20,6 C 19,4 C 62 % 1010,2 hPa 0,0 l/m 0 min 0 min 351 W/m 19,3 km/h (3 Bft) 100,00 %
27.05.2019 13:36 19,3 C 20,6 C 19,4 C 62 % 1010,2 hPa 0,0 l/m 0 min 0 min 334 W/m 9,7 km/h (2 Bft) 100,00 %
27.05.2019 13:38 19,3 C 20,0 C 19,4 C 63 % 1010,2 hPa 0,0 l/m 0 min 0 min 304 W/m 12,9 km/h (3 Bft) 97,87 %
27.05.2019 13:40 19,3 C 20,0 C 19,4 C 62 % 1010,2 hPa 0,0 l/m 0 min 0 min 339 W/m 9,7 km/h (2 Bft) 97,87 %
27.05.2019 13:42 19,3 C 21,1 C 20,6 C 61 % 1010,2 hPa 0,0 l/m 0 min 0 min 410 W/m 12,9 km/h (3 Bft) 97,62 %
27.05.2019 13:44 19,3 C 20,6 C 20,0 C 61 % 1010,2 hPa 0,0 l/m 0 min 0 min 335 W/m 9,7 km/h (2 Bft) 97,92 %
27.05.2019 13:46 19,2 C 20,0 C 19,4 C 60 % 1010,2 hPa 0,0 l/m 0 min 0 min 320 W/m 9,7 km/h (2 Bft) 95,92 %
27.05.2019 13:48 19,2 C 19,4 C 19,4 C 59 % 1010,1 hPa 0,0 l/m 0 min 0 min 335 W/m 9,7 km/h (2 Bft) 97,92 %
27.05.2019 13:50 19,1 C 20,0 C 18,9 C 59 % 1010,1 hPa 0,0 l/m 0 min 0 min 347 W/m 12,9 km/h (3 Bft) 97,87 %
27.05.2019 13:52 19,1 C 20,6 C 19,4 C 62 % 1010,0 hPa 0,0 l/m 0 min 0 min 382 W/m 9,7 km/h (2 Bft) 97,87 %
27.05.2019 13:54 19,1 C 20,6 C 19,4 C 63 % 1010,1 hPa 0,0 l/m 0 min 0 min 353 W/m 9,7 km/h (2 Bft) 97,87 %
27.05.2019 13:56 19,1 C 21,7 C 20,6 C 63 % 1010,1 hPa 0,0 l/m 0 min 0 min 353 W/m 6,4 km/h (2 Bft) 97,62 %
27.05.2019 13:58 19,2 C 21,1 C 20,0 C 63 % 1010,2 hPa 0,0 l/m 0 min 0 min 331 W/m 12,9 km/h (3 Bft) 95,92 %
27.05.2019 14:00 19,2 C 21,1 C 20,6 C 62 % 1010,1 hPa 0,0 l/m 0 min 0 min 322 W/m 16,1 km/h (3 Bft) 97,87 %
27.05.2019 14:02 19,2 C 22,2 C 21,7 C 64 % 1010,1 hPa 0,0 l/m 0 min 0 min 346 W/m 16,1 km/h (3 Bft) 93,88 %
27.05.2019 14:04 19,2 C 21,7 C 21,1 C 62 % 1010,0 hPa 0,0 l/m 0 min 0 min 365 W/m 19,3 km/h (3 Bft) 97,87 %
27.05.2019 14:06 19,2 C 20,6 C 20,0 C 63 % 1010,0 hPa 0,0 l/m 0 min 0 min 258 W/m 9,7 km/h (2 Bft) 97,87 %
27.05.2019 14:08 19,2 C 21,1 C 20,6 C 62 % 1010,0 hPa 0,0 l/m 0 min 0 min 274 W/m 9,7 km/h (2 Bft) 97,83 %
27.05.2019 14:10 19,2 C 21,1 C 21,1 C 63 % 1010,0 hPa 0,0 l/m 0 min 0 min 293 W/m 19,3 km/h (3 Bft) 97,67 %
27.05.2019 14:12 19,2 C 21,7 C 21,1 C 61 % 1010,0 hPa 0,0 l/m 0 min 0 min 348 W/m 9,7 km/h (2 Bft) 97,96 %
27.05.2019 14:14 19,3 C 22,2 C 22,2 C 62 % 1010,0 hPa 0,0 l/m 0 min 0 min 367 W/m 9,7 km/h (2 Bft) 97,96 %
27.05.2019 14:16 19,4 C 24,4 C 24,4 C 62 % 1010,0 hPa 0,0 l/m 2 min 0 min 833 W/m 12,9 km/h (3 Bft) 97,87 %
27.05.2019 14:18 19,4 C 23,9 C 25,0 C 60 % 1009,9 hPa 0,0 l/m 2 min 0 min 1063 W/m 19,3 km/h (3 Bft) 97,87 %
27.05.2019 14:20 19,6 C 25,0 C 25,6 C 61 % 1009,9 hPa 0,0 l/m 2 min 0 min 1005 W/m 9,7 km/h (2 Bft) 97,83 %
27.05.2019 14:22 19,7 C 25,0 C 25,6 C 60 % 1009,9 hPa 0,0 l/m 2 min 0 min 992 W/m 16,1 km/h (3 Bft) 97,67 %
27.05.2019 14:24 19,9 C 25,0 C 26,1 C 60 % 1009,8 hPa 0,0 l/m 2 min 0 min 1070 W/m 9,7 km/h (2 Bft) 100,00 %
27.05.2019 14:26 20,2 C 25,0 C 26,1 C 61 % 1009,8 hPa 0,0 l/m 2 min 0 min 1062 W/m 9,7 km/h (2 Bft) 100,00 %
27.05.2019 14:28 20,3 C 23,3 C 23,3 C 60 % 1009,7 hPa 0,0 l/m 2 min 0 min 903 W/m 9,7 km/h (2 Bft) 100,00 %
27.05.2019 14:30 20,3 C 23,3 C 23,3 C 57 % 1009,8 hPa 0,0 l/m 0 min 0 min 346 W/m 16,1 km/h (3 Bft) 100,00 %
27.05.2019 14:32 20,4 C 22,8 C 22,8 C 59 % 1009,8 hPa 0,0 l/m 0 min 0 min 343 W/m 9,7 km/h (2 Bft) 100,00 %
27.05.2019 14:34 20,4 C 22,8 C 22,2 C 59 % 1009,7 hPa 0,0 l/m 0 min 0 min 308 W/m 9,7 km/h (2 Bft) 100,00 %
27.05.2019 14:36 20,4 C 23,3 C 22,2 C 58 % 1009,7 hPa 0,0 l/m 0 min 0 min 309 W/m 9,7 km/h (2 Bft) 100,00 %
27.05.2019 14:38 20,4 C 22,8 C 21,7 C 57 % 1009,7 hPa 0,0 l/m 0 min 0 min 361 W/m 19,3 km/h (3 Bft) 100,00 %
27.05.2019 14:40 20,4 C 22,8 C 21,7 C 57 % 1009,6 hPa 0,0 l/m 2 min 0 min 781 W/m 12,9 km/h (3 Bft) 97,87 %
27.05.2019 14:42 20,5 C 24,4 C 22,2 C 58 % 1009,7 hPa 0,0 l/m 2 min 0 min 852 W/m 12,9 km/h (3 Bft) 97,87 %
27.05.2019 14:44 20,6 C 23,9 C 22,2 C 59 % 1009,6 hPa 0,0 l/m 2 min 0 min 957 W/m 12,9 km/h (3 Bft) 97,56 %
27.05.2019 14:46 20,6 C 22,8 C 21,1 C 57 % 1009,7 hPa 0,0 l/m 2 min 0 min 698 W/m 12,9 km/h (3 Bft) 97,96 %
27.05.2019 14:48 20,6 C 22,2 C 21,1 C 58 % 1009,6 hPa 0,0 l/m 0 min 0 min 398 W/m 6,4 km/h (2 Bft) 97,96 %
27.05.2019 14:50 20,6 C 22,2 C 21,1 C 58 % 1009,7 hPa 0,0 l/m 0 min 0 min 363 W/m 9,7 km/h (2 Bft) 96,00 %
27.05.2019 14:52 20,6 C 22,2 C 21,1 C 57 % 1009,5 hPa 0,0 l/m 0 min 0 min 378 W/m 9,7 km/h (2 Bft) 96,72 %
27.05.2019 14:54 20,6 C 23,3 C 21,1 C 56 % 1009,5 hPa 0,0 l/m 2 min 0 min 826 W/m 9,7 km/h (2 Bft) 97,92 %
27.05.2019 14:56 20,6 C 23,9 C 21,1 C 58 % 1009,5 hPa 0,0 l/m 2 min 0 min 868 W/m 9,7 km/h (2 Bft) 95,74 %
27.05.2019 14:58 20,6 C 22,8 C 21,1 C 57 % 1009,4 hPa 0,0 l/m 2 min 0 min 714 W/m 9,7 km/h (2 Bft) 97,83 %
27.05.2019 15:00 20,6 C 22,2 C 20,6 C 59 % 1009,4 hPa 0,0 l/m 0 min 0 min 262 W/m 12,9 km/h (3 Bft) 97,87 %
27.05.2019 15:02 20,6 C 21,1 C 20,0 C 57 % 1009,5 hPa 0,0 l/m 0 min 0 min 277 W/m 9,7 km/h (2 Bft) 97,73 %
27.05.2019 15:04 20,6 C 21,7 C 20,6 C 58 % 1009,5 hPa 0,0 l/m 0 min 0 min 287 W/m 9,7 km/h (2 Bft) 97,87 %
27.05.2019 15:06 20,5 C 22,2 C 20,6 C 57 % 1009,4 hPa 0,0 l/m 0 min 0 min 348 W/m 6,4 km/h (2 Bft) 96,72 %
27.05.2019 15:08 20,5 C 21,7 C 20,6 C 56 % 1009,4 hPa 0,0 l/m 0 min 0 min 374 W/m 12,9 km/h (3 Bft) 97,14 %
27.05.2019 15:10 20,5 C 22,2 C 20,6 C 55 % 1009,5 hPa 0,0 l/m 0 min 0 min 357 W/m 9,7 km/h (2 Bft) 97,87 %
27.05.2019 15:12 20,5 C 23,9 C 20,6 C 56 % 1009,4 hPa 0,0 l/m 2 min 0 min 952 W/m 16,1 km/h (3 Bft) 93,88 %
27.05.2019 15:14 20,6 C 24,4 C 21,1 C 56 % 1009,5 hPa 0,0 l/m 2 min 0 min 990 W/m 9,7 km/h (2 Bft) 97,92 %
27.05.2019 15:16 20,7 C 25,6 C 21,1 C 58 % 1009,3 hPa 0,0 l/m 2 min 0 min 935 W/m 12,9 km/h (3 Bft) 95,74 %
27.05.2019 15:18 20,7 C 25,0 C 21,1 C 55 % 1009,4 hPa 0,0 l/m 2 min 0 min 941 W/m 16,1 km/h (3 Bft) 95,74 %
27.05.2019 15:20 20,8 C 23,3 C 21,1 C 55 % 1009,3 hPa 0,0 l/m 2 min 0 min 918 W/m 16,1 km/h (3 Bft) 97,62 %
27.05.2019 15:22 20,8 C 22,2 C 21,1 C 55 % 1009,3 hPa 0,0 l/m 2 min 0 min 918 W/m 9,7 km/h (2 Bft) 97,92 %
27.05.2019 15:24 20,8 C 22,2 C 21,1 C 56 % 1009,4 hPa 0,0 l/m 2 min 0 min 788 W/m 9,7 km/h (2 Bft) 97,96 %
27.05.2019 15:26 20,8 C 21,7 C 20,6 C 57 % 1009,3 hPa 0,0 l/m 2 min 0 min 497 W/m 9,7 km/h (2 Bft) 93,75 %
27.05.2019 15:28 20,8 C 21,1 C 20,6 C 55 % 1009,3 hPa 0,0 l/m 0 min 0 min 318 W/m 16,1 km/h (3 Bft) 100,00 %
27.05.2019 15:30 20,7 C 21,1 C 20,6 C 56 % 1009,3 hPa 0,0 l/m 2 min 0 min 390 W/m 6,4 km/h (2 Bft) 97,87 %
27.05.2019 15:32 20,7 C 21,1 C 20,0 C 56 % 1009,3 hPa 0,0 l/m 2 min 0 min 480 W/m 9,7 km/h (2 Bft) 100,00 %
27.05.2019 15:34 20,7 C 21,1 C 20,0 C 56 % 1009,3 hPa 0,0 l/m 0 min 0 min 363 W/m 12,9 km/h (3 Bft) 97,96 %
27.05.2019 15:36 20,6 C 21,1 C 20,0 C 56 % 1009,3 hPa 0,0 l/m 0 min 0 min 364 W/m 12,9 km/h (3 Bft) 97,96 %
27.05.2019 15:38 20,6 C 21,1 C 20,0 C 55 % 1009,3 hPa 0,0 l/m 0 min 0 min 342 W/m 9,7 km/h (2 Bft) 97,87 %
27.05.2019 15:40 20,6 C 22,8 C 20,6 C 57 % 1009,3 hPa 0,0 l/m 2 min 0 min 749 W/m 12,9 km/h (3 Bft) 97,87 %
27.05.2019 15:42 20,6 C 22,8 C 20,6 C 56 % 1009,3 hPa 0,0 l/m 2 min 0 min 710 W/m 9,7 km/h (2 Bft) 97,87 %
27.05.2019 15:44 20,6 C 22,2 C 20,6 C 56 % 1009,2 hPa 0,0 l/m 2 min 0 min 577 W/m 12,9 km/h (3 Bft) 95,24 %
27.05.2019 15:46 20,7 C 22,2 C 20,6 C 57 % 1009,3 hPa 0,0 l/m 2 min 0 min 597 W/m 9,7 km/h (2 Bft) 97,96 %
27.05.2019 15:48 20,7 C 22,8 C 20,6 C 56 % 1009,3 hPa 0,0 l/m 2 min 0 min 682 W/m 16,1 km/h (3 Bft) 97,96 %
27.05.2019 15:50 20,8 C 22,8 C 20,6 C 54 % 1009,3 hPa 0,0 l/m 2 min 0 min 698 W/m 9,7 km/h (2 Bft) 97,87 %
27.05.2019 15:52 20,8 C 22,8 C 20,6 C 53 % 1009,3 hPa 0,0 l/m 2 min 0 min 736 W/m 12,9 km/h (3 Bft) 95,74 %
27.05.2019 15:54 20,8 C 22,2 C 20,6 C 53 % 1009,2 hPa 0,0 l/m 2 min 0 min 705 W/m 9,7 km/h (2 Bft) 97,87 %
27.05.2019 15:56 20,9 C 22,8 C 20,6 C 55 % 1009,2 hPa 0,0 l/m 2 min 0 min 646 W/m 9,7 km/h (2 Bft) 97,83 %
27.05.2019 15:58 20,9 C 22,8 C 20,6 C 54 % 1009,3 hPa 0,0 l/m 2 min 0 min 658 W/m 12,9 km/h (3 Bft) 95,74 %
27.05.2019 16:00 21,0 C 22,8 C 20,0 C 54 % 1009,2 hPa 0,0 l/m 2 min 0 min 657 W/m 12,9 km/h (3 Bft) 100,00 %
27.05.2019 16:02 21,0 C 22,8 C 20,0 C 54 % 1009,2 hPa 0,0 l/m 2 min 0 min 610 W/m 12,9 km/h (3 Bft) 95,45 %
27.05.2019 16:04 21,0 C 21,7 C 20,0 C 53 % 1009,2 hPa 0,0 l/m 2 min 0 min 622 W/m 16,1 km/h (3 Bft) 95,74 %
27.05.2019 16:06 21,0 C 21,1 C 20,0 C 52 % 1009,2 hPa 0,0 l/m 2 min 0 min 375 W/m 9,7 km/h (2 Bft) 97,73 %
27.05.2019 16:08 21,0 C 21,1 C 20,0 C 52 % 1009,2 hPa 0,0 l/m 2 min 0 min 596 W/m 6,4 km/h (2 Bft) 93,75 %
27.05.2019 16:10 20,9 C 20,6 C 20,0 C 52 % 1009,2 hPa 0,0 l/m 0 min 0 min 332 W/m 16,1 km/h (3 Bft) 95,92 %
27.05.2019 16:12 20,9 C 20,6 C 20,0 C 53 % 1009,2 hPa 0,0 l/m 0 min 0 min 270 W/m 9,7 km/h (2 Bft) 95,83 %
27.05.2019 16:14 20,8 C 20,6 C 20,0 C 53 % 1009,2 hPa 0,0 l/m 0 min 0 min 285 W/m 6,4 km/h (2 Bft) 95,74 %
27.05.2019 16:16 20,8 C 20,6 C 20,0 C 53 % 1009,1 hPa 0,0 l/m 2 min 0 min 482 W/m 9,7 km/h (2 Bft) 93,62 %
27.05.2019 16:18 20,7 C 20,6 C 20,0 C 53 % 1009,3 hPa 0,0 l/m 0 min 0 min 339 W/m 9,7 km/h (2 Bft) 95,24 %
27.05.2019 16:20 20,7 C 20,6 C 20,0 C 54 % 1009,1 hPa 0,0 l/m 2 min 0 min 395 W/m 9,7 km/h (2 Bft) 95,83 %
27.05.2019 16:22 20,6 C 20,6 C 19,4 C 53 % 1009,2 hPa 0,0 l/m 0 min 0 min 283 W/m 12,9 km/h (3 Bft) 95,92 %
27.05.2019 16:24 20,5 C 20,6 C 20,0 C 54 % 1009,2 hPa 0,0 l/m 0 min 0 min 306 W/m 9,7 km/h (2 Bft) 95,83 %
27.05.2019 16:26 20,4 C 20,6 C 19,4 C 53 % 1009,1 hPa 0,0 l/m 2 min 0 min 421 W/m 9,7 km/h (2 Bft) 95,74 %
27.05.2019 16:28 20,4 C 20,6 C 20,0 C 55 % 1009,2 hPa 0,0 l/m 2 min 0 min 386 W/m 12,9 km/h (3 Bft) 93,62 %
27.05.2019 16:30 20,4 C 20,6 C 19,4 C 53 % 1009,1 hPa 0,0 l/m 2 min 0 min 345 W/m 12,9 km/h (3 Bft) 97,56 %
27.05.2019 16:32 20,3 C 20,6 C 19,4 C 55 % 1009,1 hPa 0,0 l/m 2 min 0 min 360 W/m 9,7 km/h (2 Bft) 94,00 %
27.05.2019 16:34 20,3 C 20,6 C 19,4 C 55 % 1009,0 hPa 0,0 l/m 2 min 0 min 335 W/m 9,7 km/h (2 Bft) 93,88 %
27.05.2019 16:36 20,3 C 20,0 C 19,4 C 54 % 1009,0 hPa 0,0 l/m 0 min 0 min 272 W/m 16,1 km/h (3 Bft) 93,62 %
27.05.2019 16:38 20,2 C 20,0 C 18,9 C 53 % 1009,1 hPa 0,0 l/m 0 min 0 min 234 W/m 19,3 km/h (3 Bft) 97,87 %
27.05.2019 16:40 20,2 C 20,0 C 18,9 C 55 % 1009,1 hPa 0,0 l/m 0 min 0 min 229 W/m 6,4 km/h (2 Bft) 100,00 %
27.05.2019 16:42 20,1 C 20,0 C 18,9 C 55 % 1008,9 hPa 0,0 l/m 0 min 0 min 257 W/m 12,9 km/h (3 Bft) 97,62 %
27.05.2019 16:44 20,1 C 20,0 C 18,9 C 56 % 1009,0 hPa 0,0 l/m 0 min 0 min 271 W/m 12,9 km/h (3 Bft) 100,00 %
27.05.2019 16:46 20,0 C 19,4 C 18,9 C 54 % 1009,0 hPa 0,0 l/m 0 min 0 min 275 W/m 16,1 km/h (3 Bft) 97,96 %
27.05.2019 16:48 19,9 C 19,4 C 18,9 C 53 % 1008,9 hPa 0,0 l/m 0 min 0 min 269 W/m 9,7 km/h (2 Bft) 100,00 %
27.05.2019 16:50 19,9 C 19,4 C 19,4 C 54 % 1009,0 hPa 0,0 l/m 0 min 0 min 263 W/m 6,4 km/h (2 Bft) 100,00 %
27.05.2019 16:52 19,8 C 19,4 C 18,9 C 53 % 1009,0 hPa 0,0 l/m 0 min 0 min 256 W/m 9,7 km/h (2 Bft) 100,00 %
27.05.2019 16:54 19,8 C 19,4 C 19,4 C 53 % 1009,0 hPa 0,0 l/m 0 min 0 min 250 W/m 9,7 km/h (2 Bft) 97,83 %
27.05.2019 16:56 19,8 C 19,4 C 18,9 C 55 % 1009,0 hPa 0,0 l/m 0 min 0 min 242 W/m 9,7 km/h (2 Bft) 100,00 %
27.05.2019 16:58 19,7 C 19,4 C 18,9 C 55 % 1008,9 hPa 0,0 l/m 0 min 0 min 237 W/m 9,7 km/h (2 Bft) 96,00 %
27.05.2019 17:00 19,7 C 19,4 C 18,9 C 55 % 1008,9 hPa 0,0 l/m 0 min 0 min 236 W/m 6,4 km/h (2 Bft) 100,00 %
27.05.2019 17:02 19,6 C 19,4 C 19,4 C 55 % 1008,9 hPa 0,0 l/m 0 min 0 min 237 W/m 9,7 km/h (2 Bft) 100,00 %
27.05.2019 17:04 19,6 C 19,4 C 18,9 C 54 % 1008,9 hPa 0,0 l/m 0 min 0 min 241 W/m 9,7 km/h (2 Bft) 100,00 %
27.05.2019 17:06 19,6 C 19,4 C 18,9 C 55 % 1008,9 hPa 0,0 l/m 0 min 0 min 242 W/m 6,4 km/h (2 Bft) 100,00 %
27.05.2019 17:08 19,6 C 19,4 C 18,9 C 54 % 1008,9 hPa 0,0 l/m 0 min 0 min 245 W/m 9,7 km/h (2 Bft) 100,00 %
27.05.2019 17:10 19,6 C 19,4 C 18,9 C 56 % 1008,9 hPa 0,0 l/m 0 min 0 min 242 W/m 6,4 km/h (2 Bft) 97,62 %
27.05.2019 17:12 19,6 C 19,4 C 18,9 C 56 % 1009,0 hPa 0,0 l/m 0 min 0 min 240 W/m 12,9 km/h (3 Bft) 100,00 %
27.05.2019 17:14 19,6 C 20,0 C 18,9 C 55 % 1008,9 hPa 0,0 l/m 0 min 0 min 239 W/m 6,4 km/h (2 Bft) 100,00 %
27.05.2019 17:16 19,6 C 19,4 C 18,9 C 57 % 1008,9 hPa 0,0 l/m 0 min 0 min 239 W/m 6,4 km/h (2 Bft) 100,00 %
27.05.2019 17:18 19,5 C 19,4 C 18,9 C 56 % 1009,0 hPa 0,0 l/m 0 min 0 min 237 W/m 12,9 km/h (3 Bft) 100,00 %
27.05.2019 17:20 19,5 C 19,4 C 18,9 C 54 % 1008,9 hPa 0,0 l/m 0 min 0 min 239 W/m 9,7 km/h (2 Bft) 100,00 %
27.05.2019 17:22 19,5 C 20,0 C 18,9 C 56 % 1008,9 hPa 0,0 l/m 0 min 0 min 240 W/m 12,9 km/h (3 Bft) 100,00 %
27.05.2019 17:24 19,5 C 20,0 C 18,9 C 55 % 1008,8 hPa 0,0 l/m 0 min 0 min 241 W/m 9,7 km/h (2 Bft) 100,00 %
27.05.2019 17:26 19,5 C 20,0 C 18,9 C 56 % 1008,9 hPa 0,0 l/m 0 min 0 min 237 W/m 6,4 km/h (2 Bft) 100,00 %
27.05.2019 17:28 19,4 C 20,0 C 18,9 C 56 % 1008,9 hPa 0,0 l/m 0 min 0 min 234 W/m 9,7 km/h (2 Bft) 100,00 %
27.05.2019 17:30 19,4 C 19,4 C 18,9 C 56 % 1008,9 hPa 0,0 l/m 0 min 0 min 233 W/m 6,4 km/h (2 Bft) 100,00 %
27.05.2019 17:32 19,4 C 19,4 C 18,9 C 55 % 1008,9 hPa 0,0 l/m 0 min 0 min 231 W/m 6,4 km/h (2 Bft) 100,00 %
27.05.2019 17:34 19,4 C 19,4 C 18,9 C 54 % 1008,8 hPa 0,0 l/m 0 min 0 min 228 W/m 9,7 km/h (2 Bft) 100,00 %
27.05.2019 17:36 19,4 C 19,4 C 18,9 C 54 % 1008,9 hPa 0,0 l/m 0 min 0 min 223 W/m 12,9 km/h (3 Bft) 97,96 %
27.05.2019 17:38 19,4 C 19,4 C 18,9 C 54 % 1008,9 hPa 0,0 l/m 0 min 0 min 219 W/m 9,7 km/h (2 Bft) 95,74 %
27.05.2019 17:40 19,3 C 19,4 C 18,9 C 54 % 1008,8 hPa 0,0 l/m 0 min 0 min 216 W/m 6,4 km/h (2 Bft) 97,92 %
27.05.2019 17:42 19,3 C 19,4 C 18,9 C 53 % 1008,9 hPa 0,0 l/m 0 min 0 min 209 W/m 9,7 km/h (2 Bft) 97,96 %
27.05.2019 17:44 19,3 C 18,9 C 18,9 C 54 % 1008,8 hPa 0,0 l/m 0 min 0 min 212 W/m 6,4 km/h (2 Bft) 97,92 %
27.05.2019 17:46 19,3 C 19,4 C 18,9 C 56 % 1008,8 hPa 0,0 l/m 0 min 0 min 208 W/m 6,4 km/h (2 Bft) 95,74 %
27.05.2019 17:48 19,2 C 19,4 C 18,9 C 55 % 1008,8 hPa 0,0 l/m 0 min 0 min 206 W/m 6,4 km/h (2 Bft) 97,87 %
27.05.2019 17:50 19,2 C 18,9 C 18,3 C 54 % 1008,8 hPa 0,0 l/m 0 min 0 min 201 W/m 9,7 km/h (2 Bft) 97,96 %
27.05.2019 17:52 19,2 C 18,9 C 18,3 C 54 % 1008,8 hPa 0,0 l/m 0 min 0 min 198 W/m 6,4 km/h (2 Bft) 95,12 %
27.05.2019 17:54 19,2 C 18,9 C 18,3 C 55 % 1008,9 hPa 0,0 l/m 0 min 0 min 194 W/m 12,9 km/h (3 Bft) 97,96 %
27.05.2019 17:56 19,2 C 18,9 C 18,3 C 54 % 1008,8 hPa 0,0 l/m 0 min 0 min 190 W/m 6,4 km/h (2 Bft) 97,96 %
27.05.2019 17:58 19,2 C 19,4 C 18,3 C 54 % 1008,8 hPa 0,0 l/m 0 min 0 min 189 W/m 6,4 km/h (2 Bft) 97,92 %
27.05.2019 18:00 19,2 C 18,9 C 18,3 C 55 % 1008,7 hPa 0,0 l/m 0 min 0 min 185 W/m 16,1 km/h (3 Bft) 97,87 %
27.05.2019 18:02 19,1 C 18,9 C 18,3 C 55 % 1008,8 hPa 0,0 l/m 0 min 0 min 181 W/m 12,9 km/h (3 Bft) 97,87 %
27.05.2019 18:04 19,1 C 18,9 C 18,3 C 56 % 1008,8 hPa 0,0 l/m 0 min 0 min 175 W/m 3,2 km/h (1 Bft) 97,83 %
27.05.2019 18:08 19,1 C 18,9 C 18,3 C 56 % 1008,8 hPa 0,0 l/m 0 min 0 min 174 W/m 6,4 km/h (2 Bft) 97,83 %
27.05.2019 18:10 19,1 C 18,9 C 18,3 C 56 % 1008,8 hPa 0,0 l/m 0 min 0 min 179 W/m 6,4 km/h (2 Bft) 97,87 %
27.05.2019 18:12 19,1 C 18,9 C 18,3 C 56 % 1008,8 hPa 0,0 l/m 0 min 0 min 175 W/m 9,7 km/h (2 Bft) 97,96 %
27.05.2019 18:14 19,1 C 18,9 C 18,3 C 55 % 1008,7 hPa 0,0 l/m 0 min 0 min 175 W/m 6,4 km/h (2 Bft) 97,92 %
27.05.2019 18:16 19,0 C 18,9 C 18,3 C 56 % 1008,8 hPa 0,0 l/m 0 min 0 min 181 W/m 6,4 km/h (2 Bft) 97,92 %
27.05.2019 18:18 19,0 C 18,9 C 18,3 C 55 % 1008,8 hPa 0,0 l/m 0 min 0 min 190 W/m 9,7 km/h (2 Bft) 97,87 %
27.05.2019 18:20 19,0 C 18,9 C 18,3 C 54 % 1008,8 hPa 0,0 l/m 0 min 0 min 198 W/m 6,4 km/h (2 Bft) 97,87 %
27.05.2019 18:22 18,9 C 18,9 C 18,3 C 53 % 1008,8 hPa 0,0 l/m 0 min 0 min 199 W/m 12,9 km/h (3 Bft) 97,67 %
27.05.2019 18:24 19,0 C 18,9 C 18,3 C 56 % 1008,8 hPa 0,0 l/m 0 min 0 min 199 W/m 6,4 km/h (2 Bft) 97,92 %
27.05.2019 18:26 19,0 C 18,9 C 18,3 C 57 % 1008,8 hPa 0,0 l/m 0 min 0 min 196 W/m 6,4 km/h (2 Bft) 97,96 %
27.05.2019 18:28 19,0 C 18,9 C 18,3 C 57 % 1008,7 hPa 0,0 l/m 0 min 0 min 190 W/m 6,4 km/h (2 Bft) 100,00 %
27.05.2019 18:30 19,0 C 18,9 C 18,3 C 56 % 1008,8 hPa 0,0 l/m 0 min 0 min 184 W/m 9,7 km/h (2 Bft) 97,87 %
27.05.2019 18:32 19,0 C 18,9 C 18,3 C 56 % 1008,7 hPa 0,0 l/m 0 min 0 min 178 W/m 9,7 km/h (2 Bft) 97,87 %
27.05.2019 18:34 18,9 C 18,9 C 18,3 C 56 % 1008,7 hPa 0,0 l/m 0 min 0 min 171 W/m 6,4 km/h (2 Bft) 97,87 %
27.05.2019 18:36 18,9 C 18,9 C 17,8 C 55 % 1008,7 hPa 0,0 l/m 0 min 0 min 164 W/m 12,9 km/h (3 Bft) 95,35 %
27.05.2019 18:38 18,9 C 18,9 C 17,8 C 56 % 1008,7 hPa 0,0 l/m 0 min 0 min 158 W/m 12,9 km/h (3 Bft) 97,92 %
27.05.2019 18:40 18,9 C 18,9 C 17,8 C 56 % 1008,8 hPa 0,0 l/m 0 min 0 min 153 W/m 9,7 km/h (2 Bft) 97,96 %
27.05.2019 18:42 18,9 C 18,9 C 17,8 C 56 % 1008,7 hPa 0,0 l/m 0 min 0 min 148 W/m 6,4 km/h (2 Bft) 97,87 %
27.05.2019 18:44 18,9 C 18,9 C 17,8 C 56 % 1008,7 hPa 0,0 l/m 0 min 0 min 142 W/m 9,7 km/h (2 Bft) 97,87 %
27.05.2019 18:46 18,9 C 18,9 C 17,8 C 57 % 1008,7 hPa 0,0 l/m 0 min 0 min 136 W/m 3,2 km/h (1 Bft) 95,74 %
27.05.2019 18:48 18,9 C 18,9 C 17,8 C 56 % 1008,6 hPa 0,0 l/m 0 min 0 min 131 W/m 3,2 km/h (1 Bft) 95,35 %
27.05.2019 18:50 18,9 C 18,3 C 17,8 C 57 % 1008,7 hPa 0,0 l/m 0 min 0 min 126 W/m 6,4 km/h (2 Bft) 93,75 %
27.05.2019 18:52 18,8 C 18,3 C 17,8 C 58 % 1008,6 hPa 0,0 l/m 0 min 0 min 121 W/m 6,4 km/h (2 Bft) 97,87 %
27.05.2019 18:54 18,8 C 18,3 C 17,8 C 57 % 1008,6 hPa 0,0 l/m 0 min 0 min 118 W/m 6,4 km/h (2 Bft) 97,96 %
27.05.2019 18:56 18,8 C 18,3 C 17,8 C 58 % 1008,6 hPa 0,0 l/m 0 min 0 min 116 W/m 6,4 km/h (2 Bft) 97,87 %
27.05.2019 18:58 18,8 C 18,3 C 17,8 C 57 % 1008,6 hPa 0,0 l/m 0 min 0 min 118 W/m 12,9 km/h (3 Bft) 95,74 %
27.05.2019 19:00 18,7 C 18,3 C 17,2 C 58 % 1008,6 hPa 0,0 l/m 0 min 0 min 120 W/m 6,4 km/h (2 Bft) 95,74 %
27.05.2019 19:02 18,7 C 18,3 C 17,2 C 57 % 1008,6 hPa 0,0 l/m 0 min 0 min 120 W/m 12,9 km/h (3 Bft) 97,62 %
27.05.2019 19:04 18,7 C 18,3 C 17,2 C 57 % 1008,6 hPa 0,0 l/m 0 min 0 min 121 W/m 6,4 km/h (2 Bft) 95,74 %
27.05.2019 19:06 18,7 C 18,3 C 17,2 C 59 % 1008,6 hPa 0,0 l/m 0 min 0 min 122 W/m 6,4 km/h (2 Bft) 96,00 %
27.05.2019 19:08 18,6 C 18,3 C 17,2 C 58 % 1008,5 hPa 0,0 l/m 0 min 0 min 126 W/m 9,7 km/h (2 Bft) 93,75 %
27.05.2019 19:10 18,6 C 18,3 C 17,2 C 58 % 1008,5 hPa 0,0 l/m 0 min 0 min 131 W/m 6,4 km/h (2 Bft) 91,49 %
27.05.2019 19:12 18,6 C 18,3 C 17,2 C 59 % 1008,5 hPa 0,0 l/m 0 min 0 min 127 W/m 6,4 km/h (2 Bft) 95,65 %
27.05.2019 19:14 18,6 C 18,3 C 17,2 C 58 % 1008,5 hPa 0,0 l/m 0 min 0 min 119 W/m 9,7 km/h (2 Bft) 93,62 %
27.05.2019 19:16 18,6 C 18,3 C 17,2 C 59 % 1008,5 hPa 0,0 l/m 0 min 0 min 113 W/m 9,7 km/h (2 Bft) 95,24 %
27.05.2019 19:18 18,6 C 18,3 C 17,2 C 59 % 1008,5 hPa 0,0 l/m 0 min 0 min 110 W/m 6,4 km/h (2 Bft) 97,96 %
27.05.2019 19:20 18,5 C 18,3 C 17,2 C 59 % 1008,5 hPa 0,0 l/m 0 min 0 min 101 W/m 6,4 km/h (2 Bft) 97,96 %
27.05.2019 19:22 18,5 C 18,3 C 17,2 C 59 % 1008,4 hPa 0,0 l/m 0 min 0 min 97 W/m 6,4 km/h (2 Bft) 95,83 %
27.05.2019 19:24 18,5 C 17,8 C 17,2 C 59 % 1008,4 hPa 0,0 l/m 0 min 0 min 93 W/m 6,4 km/h (2 Bft) 97,83 %
27.05.2019 19:26 18,5 C 17,8 C 17,2 C 60 % 1008,5 hPa 0,0 l/m 0 min 0 min 87 W/m 3,2 km/h (1 Bft) 97,87 %
27.05.2019 19:28 18,4 C 17,8 C 17,2 C 60 % 1008,5 hPa 0,0 l/m 0 min 0 min 78 W/m 9,7 km/h (2 Bft) 97,62 %
27.05.2019 19:30 18,4 C 17,8 C 17,2 C 61 % 1008,4 hPa 0,0 l/m 0 min 0 min 69 W/m 6,4 km/h (2 Bft) 97,96 %
27.05.2019 19:32 18,4 C 17,8 C 16,7 C 61 % 1008,4 hPa 0,0 l/m 0 min 0 min 64 W/m 6,4 km/h (2 Bft) 97,37 %
27.05.2019 19:34 18,4 C 17,8 C 16,7 C 61 % 1008,4 hPa 0,0 l/m 0 min 0 min 60 W/m 12,9 km/h (3 Bft) 97,96 %
27.05.2019 19:36 18,3 C 17,2 C 16,7 C 61 % 1008,3 hPa 0,0 l/m 0 min 0 min 58 W/m 6,4 km/h (2 Bft) 95,83 %
27.05.2019 19:38 18,3 C 17,2 C 16,7 C 61 % 1008,4 hPa 0,0 l/m 0 min 0 min 56 W/m 9,7 km/h (2 Bft) 97,83 %
27.05.2019 19:40 18,3 C 17,2 C 16,7 C 61 % 1008,3 hPa 0,0 l/m 0 min 0 min 54 W/m 6,4 km/h (2 Bft) 97,87 %
27.05.2019 19:42 18,2 C 17,2 C 16,7 C 61 % 1008,3 hPa 0,0 l/m 0 min 0 min 52 W/m 3,2 km/h (1 Bft) 95,74 %
27.05.2019 19:44 18,2 C 17,2 C 16,1 C 61 % 1008,3 hPa 0,0 l/m 0 min 0 min 49 W/m 6,4 km/h (2 Bft) 97,87 %
27.05.2019 19:46 18,2 C 17,2 C 16,7 C 62 % 1008,3 hPa 0,0 l/m 0 min 0 min 51 W/m 3,2 km/h (1 Bft) 97,62 %
27.05.2019 19:48 18,2 C 17,2 C 16,7 C 62 % 1008,2 hPa 0,0 l/m 0 min 0 min 54 W/m 0,0 km/h (0 Bft) 95,92 %
27.05.2019 19:50 18,1 C 17,2 C 16,7 C 63 % 1008,3 hPa 0,0 l/m 0 min 0 min 53 W/m 0,0 km/h (0 Bft) 97,92 %
27.05.2019 19:52 18,1 C 17,2 C 16,7 C 62 % 1008,2 hPa 0,0 l/m 0 min 0 min 51 W/m 6,4 km/h (2 Bft) 97,92 %
27.05.2019 19:54 18,1 C 17,2 C 16,1 C 62 % 1008,2 hPa 0,0 l/m 0 min 0 min 48 W/m 6,4 km/h (2 Bft) 97,87 %
27.05.2019 19:56 18,1 C 17,2 C 16,1 C 61 % 1008,2 hPa 0,0 l/m 0 min 0 min 46 W/m 6,4 km/h (2 Bft) 97,87 %
27.05.2019 19:58 18,0 C 17,2 C 16,1 C 61 % 1008,3 hPa 0,0 l/m 0 min 0 min 46 W/m 6,4 km/h (2 Bft) 100,00 %
27.05.2019 20:00 18,0 C 16,7 C 16,1 C 62 % 1008,3 hPa 0,0 l/m 0 min 0 min 47 W/m 3,2 km/h (1 Bft) 97,87 %
27.05.2019 20:02 17,9 C 16,7 C 16,1 C 62 % 1008,2 hPa 0,0 l/m 0 min 0 min 46 W/m 3,2 km/h (1 Bft) 100,00 %
27.05.2019 20:04 17,9 C 16,7 C 16,1 C 62 % 1008,3 hPa 0,0 l/m 0 min 0 min 42 W/m 9,7 km/h (2 Bft) 100,00 %
27.05.2019 20:06 17,9 C 16,7 C 16,1 C 62 % 1008,3 hPa 0,0 l/m 0 min 0 min 41 W/m 6,4 km/h (2 Bft) 100,00 %
27.05.2019 20:08 17,9 C 16,7 C 16,1 C 63 % 1008,2 hPa 0,0 l/m 0 min 0 min 40 W/m 3,2 km/h (1 Bft) 100,00 %
27.05.2019 20:10 17,8 C 16,7 C 16,1 C 63 % 1008,1 hPa 0,0 l/m 0 min 0 min 40 W/m 6,4 km/h (2 Bft) 100,00 %
27.05.2019 20:12 17,8 C 16,7 C 16,1 C 63 % 1008,1 hPa 0,0 l/m 0 min 0 min 39 W/m 6,4 km/h (2 Bft) 100,00 %
27.05.2019 20:14 17,8 C 16,7 C 16,1 C 64 % 1008,1 hPa 0,0 l/m 0 min 0 min 39 W/m 3,2 km/h (1 Bft) 100,00 %
27.05.2019 20:16 17,8 C 16,7 C 16,1 C 63 % 1008,1 hPa 0,0 l/m 0 min 0 min 39 W/m 0,0 km/h (0 Bft) 100,00 %
27.05.2019 20:18 17,7 C 16,7 C 16,1 C 64 % 1008,1 hPa 0,0 l/m 0 min 0 min 38 W/m 3,2 km/h (1 Bft) 100,00 %
27.05.2019 20:20 17,7 C 16,7 C 15,6 C 64 % 1008,1 hPa 0,0 l/m 0 min 0 min 37 W/m 6,4 km/h (2 Bft) 100,00 %
27.05.2019 20:22 17,7 C 16,7 C 15,6 C 64 % 1008,1 hPa 0,0 l/m 0 min 0 min 36 W/m 3,2 km/h (1 Bft) 97,87 %
27.05.2019 20:24 17,7 C 16,7 C 15,6 C 64 % 1008,1 hPa 0,0 l/m 0 min 0 min 35 W/m 3,2 km/h (1 Bft) 100,00 %
27.05.2019 20:26 17,6 C 16,1 C 15,6 C 64 % 1008,1 hPa 0,0 l/m 0 min 0 min 34 W/m 3,2 km/h (1 Bft) 97,92 %
27.05.2019 20:28 17,6 C 16,1 C 15,6 C 64 % 1008,0 hPa 0,0 l/m 0 min 0 min 33 W/m 0,0 km/h (0 Bft) 100,00 %
27.05.2019 20:30 17,6 C 16,1 C 15,6 C 65 % 1008,1 hPa 0,0 l/m 0 min 0 min 32 W/m 0,0 km/h (0 Bft) 98,36 %
27.05.2019 20:32 17,6 C 16,1 C 15,6 C 65 % 1008,1 hPa 0,0 l/m 0 min 0 min 31 W/m 0,0 km/h (0 Bft) 100,00 %
27.05.2019 20:34 17,6 C 16,1 C 15,6 C 65 % 1008,1 hPa 0,0 l/m 0 min 0 min 30 W/m 3,2 km/h (1 Bft) 100,00 %
27.05.2019 20:36 17,5 C 16,1 C 15,6 C 65 % 1008,1 hPa 0,0 l/m 0 min 0 min 30 W/m 3,2 km/h (1 Bft) 100,00 %
27.05.2019 20:38 17,5 C 16,1 C 15,6 C 64 % 1008,1 hPa 0,0 l/m 0 min 0 min 30 W/m 3,2 km/h (1 Bft) 100,00 %
27.05.2019 20:40 17,5 C 16,1 C 15,6 C 64 % 1008,0 hPa 0,0 l/m 0 min 0 min 30 W/m 3,2 km/h (1 Bft) 100,00 %
27.05.2019 20:42 17,4 C 16,1 C 15,6 C 64 % 1008,0 hPa 0,0 l/m 0 min 0 min 30 W/m 0,0 km/h (0 Bft) 97,96 %
27.05.2019 20:44 17,4 C 16,1 C 15,6 C 65 % 1008,0 hPa 0,0 l/m 0 min 0 min 28 W/m 3,2 km/h (1 Bft) 100,00 %
27.05.2019 20:46 17,4 C 16,1 C 15,6 C 65 % 1008,0 hPa 0,0 l/m 0 min 0 min 28 W/m 0,0 km/h (0 Bft) 97,87 %
27.05.2019 20:48 17,4 C 16,1 C 15,6 C 65 % 1008,1 hPa 0,0 l/m 0 min 0 min 26 W/m 0,0 km/h (0 Bft) 95,65 %
27.05.2019 20:50 17,4 C 16,1 C 15,6 C 65 % 1008,1 hPa 0,0 l/m 0 min 0 min 26 W/m 3,2 km/h (1 Bft) 95,35 %
27.05.2019 20:52 17,3 C 16,1 C 15,6 C 65 % 1008,1 hPa 0,0 l/m 0 min 0 min 25 W/m 3,2 km/h (1 Bft) 97,96 %
27.05.2019 20:54 17,3 C 15,6 C 15,0 C 66 % 1008,1 hPa 0,0 l/m 0 min 0 min 25 W/m 0,0 km/h (0 Bft) 97,96 %
27.05.2019 20:56 17,3 C 15,6 C 15,0 C 66 % 1008,1 hPa 0,0 l/m 0 min 0 min 23 W/m 3,2 km/h (1 Bft) 97,87 %
27.05.2019 20:58 17,2 C 15,6 C 15,0 C 66 % 1008,1 hPa 0,0 l/m 0 min 0 min 21 W/m 3,2 km/h (1 Bft) 97,62 %
27.05.2019 21:00 17,2 C 15,6 C 15,0 C 66 % 1008,1 hPa 0,0 l/m 0 min 0 min 20 W/m 3,2 km/h (1 Bft) 93,48 %
27.05.2019 21:02 17,2 C 15,6 C 15,0 C 66 % 1008,0 hPa 0,0 l/m 0 min 0 min 16 W/m 3,2 km/h (1 Bft) 96,08 %
27.05.2019 21:04 17,1 C 15,6 C 15,0 C 66 % 1008,1 hPa 0,0 l/m 0 min 0 min 14 W/m 0,0 km/h (0 Bft) 97,92 %
27.05.2019 21:06 17,1 C 15,6 C 15,0 C 66 % 1008,0 hPa 0,0 l/m 0 min 0 min 12 W/m 0,0 km/h (0 Bft) 95,74 %
27.05.2019 21:08 17,1 C 15,6 C 15,0 C 66 % 1008,1 hPa 0,0 l/m 0 min 0 min 11 W/m 3,2 km/h (1 Bft) 97,87 %
27.05.2019 21:10 17,0 C 15,6 C 15,0 C 67 % 1008,1 hPa 0,0 l/m 0 min 0 min 11 W/m 0,0 km/h (0 Bft) 97,87 %
27.05.2019 21:12 16,9 C 15,6 C 15,0 C 66 % 1008,1 hPa 0,0 l/m 0 min 0 min 10 W/m 6,4 km/h (2 Bft) 97,62 %
27.05.2019 21:14 16,9 C 15,6 C 15,0 C 67 % 1008,2 hPa 0,0 l/m 0 min 0 min 9 W/m 3,2 km/h (1 Bft) 97,96 %
27.05.2019 21:16 16,9 C 15,6 C 15,0 C 66 % 1008,2 hPa 0,0 l/m 0 min 0 min 9 W/m 0,0 km/h (0 Bft) 95,92 %
27.05.2019 21:18 16,9 C 15,6 C 15,0 C 66 % 1008,1 hPa 0,0 l/m 0 min 0 min 7 W/m 0,0 km/h (0 Bft) 95,74 %
27.05.2019 21:20 16,8 C 15,0 C 15,0 C 67 % 1008,1 hPa 0,0 l/m 0 min 0 min 5 W/m 3,2 km/h (1 Bft) 95,74 %
27.05.2019 21:22 16,8 C 15,0 C 15,0 C 67 % 1008,2 hPa 0,0 l/m 0 min 0 min 5 W/m 3,2 km/h (1 Bft) 95,74 %
27.05.2019 21:24 16,8 C 15,0 C 14,4 C 67 % 1008,2 hPa 0,0 l/m 0 min 0 min 5 W/m 6,4 km/h (2 Bft) 95,24 %
27.05.2019 21:26 16,7 C 15,0 C 14,4 C 67 % 1008,1 hPa 0,0 l/m 0 min 0 min 5 W/m 3,2 km/h (1 Bft) 95,92 %
27.05.2019 21:28 16,7 C 15,0 C 14,4 C 67 % 1008,1 hPa 0,0 l/m 0 min 0 min 5 W/m 0,0 km/h (0 Bft) 93,88 %
27.05.2019 21:30 16,6 C 15,0 C 14,4 C 68 % 1008,2 hPa 0,0 l/m 0 min 0 min 5 W/m 0,0 km/h (0 Bft) 95,74 %
27.05.2019 21:32 16,6 C 15,0 C 14,4 C 68 % 1008,2 hPa 0,0 l/m 0 min 0 min 1 W/m 0,0 km/h (0 Bft) 93,62 %
27.05.2019 21:34 16,6 C 15,0 C 14,4 C 68 % 1008,2 hPa 0,0 l/m 0 min 0 min 0 W/m 3,2 km/h (1 Bft) 95,24 %
27.05.2019 21:36 16,5 C 15,0 C 14,4 C 68 % 1008,1 hPa 0,0 l/m 0 min 0 min 0 W/m 3,2 km/h (1 Bft) 95,83 %
27.05.2019 21:38 16,5 C 15,0 C 14,4 C 67 % 1008,2 hPa 0,0 l/m 0 min 0 min 0 W/m 0,0 km/h (0 Bft) 95,92 %
27.05.2019 21:40 16,4 C 15,0 C 14,4 C 67 % 1008,2 hPa 0,0 l/m 0 min 0 min 0 W/m 3,2 km/h (1 Bft) 95,83 %
27.05.2019 21:42 16,4 C 15,0 C 14,4 C 68 % 1008,2 hPa 0,0 l/m 0 min 0 min 0 W/m 3,2 km/h (1 Bft) 93,62 %
27.05.2019 21:44 16,4 C 15,0 C 14,4 C 68 % 1008,2 hPa 0,0 l/m 0 min 0 min 0 W/m 0,0 km/h (0 Bft) 93,62 %
27.05.2019 21:46 16,4 C 15,0 C 14,4 C 68 % 1008,2 hPa 0,0 l/m 0 min 0 min 0 W/m 0,0 km/h (0 Bft) 92,86 %
27.05.2019 21:48 16,3 C 15,0 C 14,4 C 68 % 1008,2 hPa 0,0 l/m 0 min 0 min 0 W/m 0,0 km/h (0 Bft) 87,50 %
27.05.2019 21:50 16,3 C 15,0 C 14,4 C 68 % 1008,2 hPa 0,0 l/m 0 min 0 min 0 W/m 0,0 km/h (0 Bft) 95,92 %
27.05.2019 21:52 16,3 C 15,0 C 14,4 C 68 % 1008,2 hPa 0,0 l/m 0 min 0 min 0 W/m 0,0 km/h (0 Bft) 93,75 %
27.05.2019 21:54 16,3 C 15,0 C 14,4 C 68 % 1008,2 hPa 0,0 l/m 0 min 0 min 0 W/m 0,0 km/h (0 Bft) 93,62 %
27.05.2019 21:56 16,2 C 14,4 C 14,4 C 69 % 1008,2 hPa 0,0 l/m 0 min 0 min 0 W/m 0,0 km/h (0 Bft) 91,49 %
27.05.2019 21:58 16,2 C 14,4 C 14,4 C 69 % 1008,2 hPa 0,0 l/m 0 min 0 min 0 W/m 0,0 km/h (0 Bft) 95,24 %
27.05.2019 22:00 16,2 C 14,4 C 14,4 C 69 % 1008,2 hPa 0,0 l/m 0 min 0 min 0 W/m 0,0 km/h (0 Bft) 95,74 %
27.05.2019 22:02 16,1 C 14,4 C 14,4 C 69 % 1008,2 hPa 0,0 l/m 0 min 0 min 0 W/m 0,0 km/h (0 Bft) 91,49 %
27.05.2019 22:04 16,1 C 14,4 C 14,4 C 69 % 1008,2 hPa 0,0 l/m 0 min 0 min 0 W/m 0,0 km/h (0 Bft) 91,49 %
27.05.2019 22:06 16,1 C 14,4 C 14,4 C 69 % 1008,2 hPa 0,0 l/m 0 min 0 min 0 W/m 0,0 km/h (0 Bft) 98,00 %
27.05.2019 22:08 16,0 C 14,4 C 13,9 C 69 % 1008,2 hPa 0,0 l/m 0 min 0 min 0 W/m 0,0 km/h (0 Bft) 95,83 %
27.05.2019 22:10 16,0 C 14,4 C 13,9 C 69 % 1008,2 hPa 0,0 l/m 0 min 0 min 0 W/m 0,0 km/h (0 Bft) 97,83 %
27.05.2019 22:12 16,0 C 14,4 C 13,9 C 69 % 1008,2 hPa 0,0 l/m 0 min 0 min 0 W/m 0,0 km/h (0 Bft) 95,74 %
27.05.2019 22:14 15,9 C 14,4 C 13,9 C 69 % 1008,1 hPa 0,0 l/m 0 min 0 min 0 W/m 0,0 km/h (0 Bft) 97,87 %
27.05.2019 22:16 15,9 C 14,4 C 13,9 C 69 % 1008,1 hPa 0,0 l/m 0 min 0 min 0 W/m 0,0 km/h (0 Bft) 97,62 %
27.05.2019 22:18 15,9 C 14,4 C 13,9 C 69 % 1008,1 hPa 0,0 l/m 0 min 0 min 0 W/m 0,0 km/h (0 Bft) 97,96 %
27.05.2019 22:20 15,9 C 14,4 C 13,9 C 69 % 1008,1 hPa 0,0 l/m 0 min 0 min 0 W/m 0,0 km/h (0 Bft) 97,92 %
27.05.2019 22:22 15,8 C 14,4 C 13,9 C 69 % 1008,1 hPa 0,0 l/m 0 min 0 min 0 W/m 0,0 km/h (0 Bft) 97,92 %
27.05.2019 22:24 15,8 C 14,4 C 13,9 C 69 % 1008,1 hPa 0,0 l/m 0 min 0 min 0 W/m 0,0 km/h (0 Bft) 97,87 %
27.05.2019 22:26 15,8 C 14,4 C 13,9 C 69 % 1008,2 hPa 0,0 l/m 0 min 0 min 0 W/m 0,0 km/h (0 Bft) 97,87 %
27.05.2019 22:28 15,8 C 13,9 C 13,3 C 69 % 1008,2 hPa 0,0 l/m 0 min 0 min 0 W/m 0,0 km/h (0 Bft) 97,87 %
27.05.2019 22:30 15,7 C 13,9 C 13,3 C 69 % 1008,1 hPa 0,0 l/m 0 min 0 min 0 W/m 0,0 km/h (0 Bft) 97,62 %
27.05.2019 22:32 15,7 C 13,9 C 13,3 C 69 % 1008,1 hPa 0,0 l/m 0 min 0 min 0 W/m 0,0 km/h (0 Bft) 95,92 %
27.05.2019 22:34 15,7 C 13,9 C 13,3 C 69 % 1008,1 hPa 0,0 l/m 0 min 0 min 0 W/m 0,0 km/h (0 Bft) 97,96 %
27.05.2019 22:36 15,7 C 13,9 C 13,3 C 69 % 1008,1 hPa 0,0 l/m 0 min 0 min 0 W/m 0,0 km/h (0 Bft) 97,96 %
27.05.2019 22:38 15,6 C 13,9 C 13,3 C 69 % 1008,1 hPa 0,0 l/m 0 min 0 min 0 W/m 0,0 km/h (0 Bft) 97,92 %
27.05.2019 22:40 15,6 C 13,9 C 13,3 C 69 % 1008,1 hPa 0,0 l/m 0 min 0 min 0 W/m 0,0 km/h (0 Bft) 97,87 %
27.05.2019 22:42 15,6 C 13,9 C 12,8 C 69 % 1008,1 hPa 0,0 l/m 0 min 0 min 0 W/m 0,0 km/h (0 Bft) 100,00 %
27.05.2019 22:44 15,5 C 13,9 C 12,8 C 69 % 1008,1 hPa 0,0 l/m 0 min 0 min 0 W/m 0,0 km/h (0 Bft) 100,00 %
27.05.2019 22:46 15,5 C 13,9 C 12,8 C 69 % 1008,1 hPa 0,0 l/m 0 min 0 min 0 W/m 0,0 km/h (0 Bft) 97,96 %
27.05.2019 22:48 15,4 C 13,3 C 12,8 C 69 % 1008,1 hPa 0,0 l/m 0 min 0 min 0 W/m 0,0 km/h (0 Bft) 100,00 %
27.05.2019 22:50 15,4 C 13,3 C 12,8 C 69 % 1008,1 hPa 0,0 l/m 0 min 0 min 0 W/m 0,0 km/h (0 Bft) 97,92 %
27.05.2019 22:52 15,4 C 13,3 C 12,8 C 69 % 1008,1 hPa 0,0 l/m 0 min 0 min 0 W/m 0,0 km/h (0 Bft) 100,00 %
27.05.2019 22:54 15,3 C 13,3 C 12,8 C 69 % 1008,1 hPa 0,0 l/m 0 min 0 min 0 W/m 0,0 km/h (0 Bft) 100,00 %
27.05.2019 22:56 15,3 C 13,3 C 12,2 C 70 % 1008,2 hPa 0,0 l/m 0 min 0 min 0 W/m 0,0 km/h (0 Bft) 100,00 %
27.05.2019 22:58 15,3 C 12,8 C 12,2 C 70 % 1008,1 hPa 0,0 l/m 0 min 0 min 0 W/m 0,0 km/h (0 Bft) 100,00 %
27.05.2019 23:00 15,2 C 12,8 C 12,2 C 70 % 1008,1 hPa 0,0 l/m 0 min 0 min 0 W/m 0,0 km/h (0 Bft) 100,00 %
27.05.2019 23:02 15,2 C 12,8 C 12,2 C 70 % 1008,1 hPa 0,0 l/m 0 min 0 min 0 W/m 0,0 km/h (0 Bft) 97,96 %
27.05.2019 23:04 15,2 C 12,8 C 12,2 C 70 % 1008,1 hPa 0,0 l/m 0 min 0 min 0 W/m 0,0 km/h (0 Bft) 100,00 %
27.05.2019 23:06 15,1 C 12,8 C 11,7 C 70 % 1008,1 hPa 0,0 l/m 0 min 0 min 0 W/m 0,0 km/h (0 Bft) 100,00 %
27.05.2019 23:08 15,1 C 12,8 C 11,7 C 70 % 1008,1 hPa 0,0 l/m 0 min 0 min 0 W/m 0,0 km/h (0 Bft) 100,00 %
27.05.2019 23:10 15,0 C 12,8 C 11,7 C 70 % 1008,0 hPa 0,0 l/m 0 min 0 min 0 W/m 0,0 km/h (0 Bft) 100,00 %
27.05.2019 23:12 14,9 C 12,8 C 11,7 C 70 % 1008,1 hPa 0,0 l/m 0 min 0 min 0 W/m 0,0 km/h (0 Bft) 97,96 %
27.05.2019 23:14 14,9 C 12,8 C 11,7 C 70 % 1008,1 hPa 0,0 l/m 0 min 0 min 0 W/m 0,0 km/h (0 Bft) 100,00 %
27.05.2019 23:16 14,9 C 12,2 C 11,7 C 71 % 1008,1 hPa 0,0 l/m 0 min 0 min 0 W/m 0,0 km/h (0 Bft) 100,00 %
27.05.2019 23:18 14,8 C 12,2 C 11,7 C 71 % 1008,0 hPa 0,0 l/m 0 min 0 min 0 W/m 0,0 km/h (0 Bft) 100,00 %
27.05.2019 23:20 14,8 C 12,2 C 11,1 C 71 % 1008,1 hPa 0,0 l/m 0 min 0 min 0 W/m 0,0 km/h (0 Bft) 100,00 %
27.05.2019 23:22 14,7 C 12,2 C 11,1 C 71 % 1008,0 hPa 0,0 l/m 0 min 0 min 0 W/m 0,0 km/h (0 Bft) 100,00 %
27.05.2019 23:24 14,6 C 12,2 C 11,1 C 71 % 1008,0 hPa 0,0 l/m 0 min 0 min 0 W/m 0,0 km/h (0 Bft) 100,00 %
27.05.2019 23:26 14,6 C 12,2 C 11,1 C 71 % 1008,0 hPa 0,0 l/m 0 min 0 min 0 W/m 0,0 km/h (0 Bft) 100,00 %
27.05.2019 23:28 14,5 C 12,2 C 11,1 C 72 % 1008,0 hPa 0,0 l/m 0 min 0 min 0 W/m 0,0 km/h (0 Bft) 100,00 %
27.05.2019 23:30 14,4 C 11,7 C 11,1 C 72 % 1008,0 hPa 0,0 l/m 0 min 0 min 0 W/m 0,0 km/h (0 Bft) 100,00 %
27.05.2019 23:32 14,4 C 11,7 C 10,6 C 72 % 1008,0 hPa 0,0 l/m 0 min 0 min 0 W/m 0,0 km/h (0 Bft) 100,00 %
27.05.2019 23:34 14,3 C 11,7 C 10,6 C 72 % 1008,1 hPa 0,0 l/m 0 min 0 min 0 W/m 0,0 km/h (0 Bft) 95,74 %
27.05.2019 23:36 14,2 C 11,7 C 10,6 C 72 % 1008,1 hPa 0,0 l/m 0 min 0 min 0 W/m 0,0 km/h (0 Bft) 100,00 %
27.05.2019 23:38 14,2 C 11,7 C 10,6 C 73 % 1008,0 hPa 0,0 l/m 0 min 0 min 0 W/m 0,0 km/h (0 Bft) 100,00 %
27.05.2019 23:40 14,2 C 11,7 C 10,6 C 73 % 1008,0 hPa 0,0 l/m 0 min 0 min 0 W/m 0,0 km/h (0 Bft) 97,96 %
27.05.2019 23:42 14,2 C 11,7 C 10,6 C 74 % 1008,0 hPa 0,0 l/m 0 min 0 min 0 W/m 0,0 km/h (0 Bft) 100,00 %
27.05.2019 23:44 14,1 C 11,7 C 10,6 C 74 % 1008,0 hPa 0,0 l/m 0 min 0 min 0 W/m 0,0 km/h (0 Bft) 100,00 %
27.05.2019 23:46 13,9 C 11,7 C 10,6 C 74 % 1008,0 hPa 0,0 l/m 0 min 0 min 0 W/m 0,0 km/h (0 Bft) 100,00 %
27.05.2019 23:48 13,9 C 11,7 C 10,6 C 74 % 1008,0 hPa 0,0 l/m 0 min 0 min 0 W/m 0,0 km/h (0 Bft) 100,00 %
27.05.2019 23:50 13,8 C 11,1 C 10,6 C 74 % 1008,0 hPa 0,0 l/m 0 min 0 min 0 W/m 0,0 km/h (0 Bft) 100,00 %
27.05.2019 23:52 13,8 C 11,1 C 10,6 C 74 % 1008,0 hPa 0,0 l/m 0 min 0 min 0 W/m 0,0 km/h (0 Bft) 100,00 %
27.05.2019 23:54 13,7 C 11,1 C 10,0 C 75 % 1008,0 hPa 0,0 l/m 0 min 0 min 0 W/m 0,0 km/h (0 Bft) 100,00 %
27.05.2019 23:56 13,7 C 11,1 C 10,0 C 75 % 1008,0 hPa 0,0 l/m 0 min 0 min 0 W/m 0,0 km/h (0 Bft) 100,00 %
27.05.2019 23:58 13,6 C 10,6 C 10,0 C 75 % 1008,0 hPa 0,0 l/m 0 min 0 min 0 W/m 0,0 km/h (0 Bft) 100,00 %
_ Min-Zeit 06:36 23:58 23:54 16:06 20:28 - - - - 05:24 21:48
Minimum _ 12,4 C 10,6 C 10,0 C 52 % 1008,0 hPa - - - - 0,0 km/h (0 Bft) 87,50 %
_ Max-Zeit 16:00 12:56 12:56 08:20 08:44 05:18 12:08 05:10 12:30 00:18 00:04
Maximum _ 21,0 C 28,9 C 27,8 C 98 % 1010,6 hPa 0,6 l/m 4 min 5 min 1137 W/m 29,0 km/h
O-SO (5 Bft)
100,00 %
Durchschnitt _ 16,6 C 16,8 C 16,2 C 76 % 1009,4 hPa #2,2 l/m #3:56 h #2:03 h 292 W/m 7,4 km/h (2 Bft) 97,60 %
© 2019 W. Hausmann